UAE9820 OMDW-YSSY

Flight info

Callsign UAE9820
Flight time N/A
Altitude 29000
Route ANVIX L223 TARDI N629 GIDAN P570 KITAL L894 BIBGO DCT SUNAN/N0501F310 L894 SAKEG DCT 10S087E 13S090E/N0494F330 17S095E 20S100E 22S104E DCT NONOG DCT ANKEL/N0478F350 DCT LEO DCT 31S128E DCT CDU J149 WHA J21 BORLI DCT CULIN Y59 RIVET
Aircraft B77L/H-SDE1E2E3FGHIJ2J3J4J5M1RWXY/LB1D1

Departure

Time 2026-04-16 20:06
Airport Al Maktoum International Airport (OMDW)

Arrival

Time N/A
Airport Sydney Kingsford Smith International Airport (YSSY)
Time Latitude Longitude Altitude Speed Heading
2026-04-16 19:20 24.89564 55.14530 164 ft 0 kts 301°
2026-04-16 19:52 24.89563 55.14533 164 ft 3 kts 302°
2026-04-16 19:52 24.89548 55.14557 167 ft 4 kts 308°
2026-04-16 19:52 24.89530 55.14580 164 ft 4 kts 316°
2026-04-16 19:52 24.89510 55.14598 164 ft 4 kts 335°
2026-04-16 19:53 24.89487 55.14603 164 ft 3 kts 27°
2026-04-16 19:53 24.89484 55.14602 164 ft 1 kts 31°
2026-04-16 19:57 24.89487 55.14604 164 ft 3 kts 31°
2026-04-16 19:57 24.89532 55.14634 164 ft 9 kts 31°
2026-04-16 19:57 24.89568 55.14659 164 ft 9 kts 32°
2026-04-16 19:58 24.89628 55.14699 165 ft 11 kts 32°
2026-04-16 19:58 24.89700 55.14748 163 ft 13 kts 31°
2026-04-16 19:58 24.89785 55.14804 163 ft 14 kts 31°
2026-04-16 19:58 24.89871 55.14861 163 ft 14 kts 31°
2026-04-16 19:59 24.89947 55.14916 163 ft 10 kts 38°
2026-04-16 19:59 24.89951 55.14986 163 ft 10 kts 120°
2026-04-16 19:59 24.89902 55.15073 163 ft 22 kts 121°
2026-04-16 20:00 24.89762 55.15326 163 ft 19 kts 121°
2026-04-16 20:00 24.89694 55.15450 163 ft 19 kts 122°
2026-04-16 20:00 24.89625 55.15574 163 ft 19 kts 121°
2026-04-16 20:00 24.89557 55.15697 163 ft 19 kts 121°
2026-04-16 20:01 24.89489 55.15818 163 ft 19 kts 121°
2026-04-16 20:01 24.89420 55.15941 163 ft 19 kts 121°
2026-04-16 20:01 24.89352 55.16065 163 ft 19 kts 120°
2026-04-16 20:01 24.89285 55.16189 163 ft 19 kts 121°
2026-04-16 20:02 24.89216 55.16312 162 ft 19 kts 121°
2026-04-16 20:02 24.89148 55.16435 163 ft 19 kts 121°
2026-04-16 20:02 24.89079 55.16559 163 ft 19 kts 121°
2026-04-16 20:02 24.89010 55.16681 163 ft 19 kts 122°
2026-04-16 20:03 24.88941 55.16804 163 ft 19 kts 122°
2026-04-16 20:03 24.88871 55.16927 163 ft 19 kts 122°
2026-04-16 20:03 24.88804 55.17050 163 ft 19 kts 120°
2026-04-16 20:03 24.88737 55.17175 163 ft 19 kts 120°
2026-04-16 20:04 24.88674 55.17293 163 ft 11 kts 121°
2026-04-16 20:04 24.88635 55.17364 163 ft 11 kts 121°
2026-04-16 20:04 24.88637 55.17433 162 ft 10 kts 46°
2026-04-16 20:04 24.88690 55.17472 162 ft 6 kts 31°
2026-04-16 20:05 24.88704 55.17482 162 ft 0 kts 31°
2026-04-16 20:05 24.88751 55.17513 162 ft 17 kts 31°
2026-04-16 20:05 24.88833 55.17553 162 ft 8 kts 358°
2026-04-16 20:05 24.88878 55.17519 163 ft 8 kts 308°
2026-04-16 20:06 24.88983 55.17330 163 ft 67 kts 301°
2026-04-16 20:06 24.89372 55.16626 161 ft 146 kts 301°
2026-04-16 20:06 24.90000 55.15491 411 ft 187 kts 301°
2026-04-16 20:06 24.90723 55.14299 1292 ft 182 kts 302°
2026-04-16 20:07 24.91349 55.13159 2228 ft 169 kts 300°
2026-04-16 20:07 24.91928 55.12071 2805 ft 163 kts 301°
2026-04-16 20:07 24.92542 55.10936 3009 ft 181 kts 301°
2026-04-16 20:07 24.93221 55.09694 3191 ft 198 kts 301°
2026-04-16 20:08 24.93959 55.08352 3484 ft 210 kts 300°
2026-04-16 20:08 24.94735 55.06946 3942 ft 218 kts 301°
2026-04-16 20:08 24.95421 55.05478 4416 ft 220 kts 284°
2026-04-16 20:08 24.95387 55.03792 4829 ft 226 kts 253°
2026-04-16 20:09 24.94601 55.02278 5279 ft 233 kts 231°
2026-04-16 20:09 24.93287 55.01188 5745 ft 240 kts 214°
2026-04-16 20:09 24.91820 55.00289 6208 ft 241 kts 206°
2026-04-16 20:09 24.90141 55.00026 6588 ft 253 kts 173°
2026-04-16 20:10 24.88535 55.00794 6932 ft 261 kts 141°
2026-04-16 20:10 24.87402 55.02363 6987 ft 265 kts 122°
2026-04-16 20:10 24.86489 55.04127 6990 ft 265 kts 113°
2026-04-16 20:10 24.86219 55.06116 7021 ft 269 kts 83°
2026-04-16 20:11 24.86333 55.08235 7007 ft 285 kts 90°
2026-04-16 20:11 24.86270 55.10443 7012 ft 293 kts 92°
2026-04-16 20:11 24.86165 55.12711 7477 ft 299 kts 92°
2026-04-16 20:11 24.86066 55.15007 8082 ft 301 kts 92°
2026-04-16 20:12 24.85980 55.17311 8703 ft 302 kts 92°
2026-04-16 20:12 24.85904 55.19630 9301 ft 304 kts 92°
2026-04-16 20:12 24.85835 55.21959 9865 ft 308 kts 92°
2026-04-16 20:12 24.85769 55.24364 10149 ft 322 kts 92°
2026-04-16 20:13 24.85702 55.26905 10291 ft 342 kts 92°
2026-04-16 20:13 24.85633 55.29595 10441 ft 361 kts 92°
2026-04-16 20:13 24.85563 55.32439 10595 ft 380 kts 92°
2026-04-16 20:13 24.85490 55.35392 10990 ft 391 kts 91°
2026-04-16 20:14 24.85416 55.38412 11532 ft 397 kts 91°
2026-04-16 20:14 24.85341 55.41424 12196 ft 400 kts 92°
2026-04-16 20:14 24.85265 55.44498 12918 ft 403 kts 92°
2026-04-16 20:14 24.85187 55.47592 13605 ft 406 kts 92°
2026-04-16 20:15 24.85108 55.50715 14177 ft 410 kts 92°
2026-04-16 20:15 24.85027 55.53872 14736 ft 415 kts 92°
2026-04-16 20:15 24.84944 55.57057 15296 ft 419 kts 92°
2026-04-16 20:15 24.84861 55.60282 15851 ft 423 kts 92°
2026-04-16 20:16 24.84775 55.63542 16389 ft 428 kts 92°
2026-04-16 20:16 24.84688 55.66834 16926 ft 432 kts 92°
2026-04-16 20:16 24.84599 55.70158 17451 ft 437 kts 92°
2026-04-16 20:16 24.84509 55.73517 17994 ft 441 kts 92°
2026-04-16 20:17 24.84417 55.76907 18480 ft 445 kts 92°
2026-04-16 20:17 24.84314 55.80317 18959 ft 446 kts 94°
2026-04-16 20:17 24.83828 55.83694 19368 ft 449 kts 107°
2026-04-16 20:17 24.82702 55.86897 19863 ft 449 kts 118°
2026-04-16 20:18 24.81059 55.89815 20363 ft 449 kts 129°
2026-04-16 20:18 24.79128 55.92514 20914 ft 450 kts 131°
2026-04-16 20:18 24.77055 55.95098 21395 ft 451 kts 137°
2026-04-16 20:18 24.74751 55.97443 21877 ft 453 kts 140°
2026-04-16 20:19 24.72414 55.99781 22348 ft 456 kts 139°
2026-04-16 20:19 24.70085 56.02160 22819 ft 458 kts 139°
2026-04-16 20:19 24.67752 56.04565 23320 ft 461 kts 139°
2026-04-16 20:19 24.65403 56.06978 23739 ft 464 kts 139°
2026-04-16 20:20 24.63016 56.09420 23902 ft 473 kts 139°
2026-04-16 20:20 24.60593 56.11897 24216 ft 477 kts 139°
2026-04-16 20:20 24.58166 56.14390 24693 ft 478 kts 139°
2026-04-16 20:20 24.55820 56.16991 25129 ft 481 kts 134°
2026-04-16 20:21 24.53627 56.19780 25475 ft 485 kts 132°
2026-04-16 20:21 24.51440 56.22623 25820 ft 489 kts 132°
2026-04-16 20:21 24.49238 56.25485 26184 ft 492 kts 132°
2026-04-16 20:21 24.47016 56.28351 26583 ft 494 kts 133°
2026-04-16 20:22 24.44773 56.31223 26923 ft 497 kts 133°
2026-04-16 20:22 24.42509 56.34104 27268 ft 500 kts 133°
2026-04-16 20:22 24.40258 56.36962 27608 ft 503 kts 133°
2026-04-16 20:22 24.37960 56.39876 27942 ft 506 kts 133°
2026-04-16 20:23 24.35652 56.42805 28259 ft 509 kts 133°
2026-04-16 20:23 24.33330 56.45749 28588 ft 512 kts 133°
2026-04-16 20:23 24.30997 56.48707 28898 ft 514 kts 133°
2026-04-16 20:23 24.28723 56.51757 29200 ft 518 kts 129°
2026-04-16 20:24 24.26594 56.54960 29476 ft 521 kts 128°
2026-04-16 20:24 24.24480 56.58188 29864 ft 522 kts 128°
2026-04-16 20:24 24.22368 56.61414 30307 ft 519 kts 128°
2026-04-16 20:24 24.20264 56.64612 30735 ft 517 kts 128°
2026-04-16 20:25 24.18153 56.67803 30912 ft 519 kts 128°
2026-04-16 20:25 24.16018 56.71014 30886 ft 524 kts 128°
2026-04-16 20:25 24.11690 56.77510 30874 ft 530 kts 128°
2026-04-16 20:26 24.07351 56.84023 30867 ft 529 kts 128°
2026-04-16 20:26 24.03013 56.90523 30869 ft 528 kts 129°
2026-04-16 20:27 23.98665 56.96992 30861 ft 527 kts 129°
2026-04-16 20:27 23.94318 57.03446 30868 ft 527 kts 129°
2026-04-16 20:28 23.89979 57.09890 30871 ft 526 kts 129°
2026-04-16 20:28 23.85641 57.16335 30855 ft 526 kts 129°
2026-04-16 20:29 23.81310 57.22775 30870 ft 526 kts 129°
2026-04-16 20:29 23.76976 57.29214 30863 ft 526 kts 129°
2026-04-16 20:30 23.72635 57.35654 30873 ft 527 kts 129°
2026-04-16 20:30 23.68180 57.41994 30869 ft 526 kts 131°
2026-04-16 20:31 23.63594 57.48217 30867 ft 526 kts 131°
2026-04-16 20:31 23.59058 57.54415 30862 ft 526 kts 131°
2026-04-16 20:32 23.54516 57.60672 30867 ft 526 kts 131°
2026-04-16 20:32 23.49971 57.66928 30882 ft 526 kts 131°
2026-04-16 20:33 23.45411 57.73172 30869 ft 526 kts 131°
2026-04-16 20:33 23.40849 57.79387 30888 ft 525 kts 131°
2026-04-16 20:34 23.36292 57.85593 30886 ft 524 kts 131°
2026-04-16 20:34 23.31741 57.91790 30898 ft 524 kts 131°
2026-04-16 20:35 23.27193 57.97977 30881 ft 523 kts 132°
2026-04-16 20:35 23.22784 58.04266 30898 ft 523 kts 127°
2026-04-16 20:36 23.18700 58.10810 30903 ft 523 kts 127°
2026-04-16 20:36 23.14605 58.17351 30903 ft 523 kts 127°
2026-04-16 20:37 23.10518 58.23826 30902 ft 523 kts 128°
2026-04-16 20:37 23.06394 58.30344 30888 ft 523 kts 128°
2026-04-16 20:38 23.01886 58.36484 30894 ft 517 kts 139°
2026-04-16 20:38 22.96347 58.41368 30889 ft 510 kts 152°
2026-04-16 20:39 22.90274 58.45306 30890 ft 509 kts 153°
2026-04-16 20:39 22.84198 58.49258 30899 ft 509 kts 152°
2026-04-16 20:40 22.78154 58.53253 30877 ft 509 kts 152°
2026-04-16 20:40 22.72118 58.57252 30894 ft 508 kts 152°
2026-04-16 20:41 22.66084 58.61237 30886 ft 508 kts 152°
2026-04-16 20:41 22.60046 58.65220 30884 ft 508 kts 152°
2026-04-16 20:42 22.54010 58.69201 30875 ft 508 kts 152°
2026-04-16 20:42 22.47973 58.73179 30883 ft 508 kts 152°
2026-04-16 20:43 22.41926 58.77160 30886 ft 509 kts 152°
2026-04-16 20:43 22.35875 58.81140 30882 ft 510 kts 152°
2026-04-16 20:44 22.29812 58.85124 30877 ft 510 kts 152°
2026-04-16 20:44 22.23746 58.89106 30880 ft 510 kts 152°
2026-04-16 20:45 22.17673 58.93082 30875 ft 511 kts 152°
2026-04-16 20:45 22.11597 58.97053 30874 ft 511 kts 152°
2026-04-16 20:46 22.06545 59.00354 30871 ft 511 kts 152°
2026-04-16 20:46 22.00474 59.04318 30867 ft 510 kts 152°
2026-04-16 20:47 21.93421 59.08918 30867 ft 509 kts 152°
2026-04-16 20:47 21.88344 59.12227 30868 ft 509 kts 152°
2026-04-16 20:48 21.82286 59.16171 30857 ft 509 kts 152°
2026-04-16 20:48 21.76232 59.20108 30862 ft 508 kts 152°
2026-04-16 20:49 21.70220 59.24014 30866 ft 508 kts 152°
2026-04-16 20:49 21.64172 59.27941 30861 ft 508 kts 152°
2026-04-16 20:50 21.58116 59.31869 30847 ft 508 kts 152°
2026-04-16 20:50 21.52060 59.35798 30866 ft 509 kts 152°
2026-04-16 20:51 21.45997 59.39731 30860 ft 509 kts 152°
2026-04-16 20:51 21.39925 59.43665 30868 ft 510 kts 152°
2026-04-16 20:52 21.33850 59.47598 30865 ft 510 kts 152°
2026-04-16 20:52 21.27772 59.51530 30856 ft 510 kts 152°
2026-04-16 20:53 21.21692 59.55458 30864 ft 510 kts 152°
2026-04-16 20:53 21.15612 59.59385 30866 ft 510 kts 152°
2026-04-16 20:54 21.09529 59.63312 30871 ft 511 kts 152°
2026-04-16 20:54 21.03442 59.67238 30863 ft 511 kts 152°
2026-04-16 20:55 20.97348 59.71160 30872 ft 511 kts 152°
2026-04-16 20:55 20.91243 59.75072 30877 ft 512 kts 152°
2026-04-16 20:56 20.85137 59.78981 30871 ft 512 kts 152°
2026-04-16 20:56 20.79028 59.82892 30861 ft 512 kts 152°
2026-04-16 20:57 20.72917 59.86801 30873 ft 512 kts 152°
2026-04-16 20:57 20.66842 59.90683 30867 ft 512 kts 152°
2026-04-16 20:58 20.60718 59.94592 30881 ft 513 kts 152°
2026-04-16 20:58 20.54586 59.98503 30871 ft 514 kts 152°
2026-04-16 20:59 20.48445 60.02416 30878 ft 514 kts 152°
2026-04-16 20:59 20.42295 60.06331 30878 ft 515 kts 152°
2026-04-16 21:00 20.36141 60.10246 30880 ft 515 kts 152°
2026-04-16 21:00 20.29983 60.14159 30875 ft 515 kts 152°
2026-04-16 21:01 20.23825 60.18068 30875 ft 515 kts 152°
2026-04-16 21:01 20.17660 60.21979 30877 ft 516 kts 152°
2026-04-16 21:02 20.11483 60.25894 30882 ft 517 kts 152°
2026-04-16 21:03 20.02469 60.32238 30865 ft 522 kts 141°
2026-04-16 21:03 19.97085 60.37429 30880 ft 523 kts 140°
2026-04-16 21:04 19.91702 60.42627 30882 ft 523 kts 140°
2026-04-16 21:04 19.86289 60.47797 30882 ft 523 kts 140°
2026-04-16 21:05 19.80858 60.52951 30878 ft 524 kts 140°
2026-04-16 21:05 19.75415 60.58106 30875 ft 524 kts 140°
2026-04-16 21:06 19.69973 60.63260 30888 ft 525 kts 140°
2026-04-16 21:06 19.64524 60.68417 30882 ft 525 kts 140°
2026-04-16 21:07 19.59070 60.73574 30881 ft 525 kts 140°
2026-04-16 21:07 19.53651 60.78695 30876 ft 526 kts 140°
2026-04-16 21:08 19.48148 60.83888 30882 ft 526 kts 140°
2026-04-16 21:08 19.42713 60.89012 30878 ft 527 kts 140°
2026-04-16 21:09 19.37233 60.94175 30881 ft 527 kts 140°
2026-04-16 21:09 19.31749 60.99336 30880 ft 527 kts 140°
2026-04-16 21:10 19.26263 61.04494 30872 ft 527 kts 140°
2026-04-16 21:10 19.20776 61.09649 30878 ft 528 kts 140°
2026-04-16 21:11 19.15285 61.14803 30885 ft 528 kts 140°
2026-04-16 21:11 19.09789 61.19956 30881 ft 528 kts 140°
2026-04-16 21:12 19.04289 61.25108 30889 ft 528 kts 140°
2026-04-16 21:12 18.98786 61.30258 30881 ft 528 kts 140°
2026-04-16 21:13 18.93288 61.35399 30884 ft 528 kts 140°
2026-04-16 21:13 18.87778 61.40546 30894 ft 529 kts 140°
2026-04-16 21:14 18.82266 61.45691 30887 ft 529 kts 140°
2026-04-16 21:14 18.76746 61.50838 30878 ft 530 kts 139°
2026-04-16 21:15 18.71220 61.55986 30886 ft 530 kts 139°
2026-04-16 21:15 18.65694 61.61130 30894 ft 530 kts 139°
2026-04-16 21:16 18.60167 61.66270 30896 ft 530 kts 139°
2026-04-16 21:16 18.54639 61.71406 30892 ft 530 kts 139°
2026-04-16 21:17 18.49111 61.76537 30884 ft 530 kts 139°
2026-04-16 21:17 18.43619 61.81631 30893 ft 529 kts 139°
2026-04-16 21:18 18.38089 61.86755 30894 ft 529 kts 139°
2026-04-16 21:18 18.32561 61.91874 30898 ft 529 kts 139°
2026-04-16 21:19 18.27021 61.96998 30888 ft 530 kts 139°
2026-04-16 21:19 18.21475 62.02123 30889 ft 531 kts 139°
2026-04-16 21:20 18.15928 62.07246 30896 ft 531 kts 139°
2026-04-16 21:20 18.10376 62.12367 30892 ft 531 kts 139°
2026-04-16 21:21 18.04825 62.17484 30890 ft 531 kts 139°
2026-04-16 21:21 17.99280 62.22591 30894 ft 530 kts 139°
2026-04-16 21:22 17.93730 62.27697 30894 ft 529 kts 139°
2026-04-16 21:22 17.88193 62.32789 30894 ft 528 kts 139°
2026-04-16 21:23 17.82665 62.37867 30895 ft 528 kts 139°
2026-04-16 21:23 17.77144 62.42934 30898 ft 527 kts 139°
2026-04-16 21:24 17.71622 62.47997 30899 ft 527 kts 139°
2026-04-16 21:24 17.66106 62.53050 30899 ft 526 kts 140°
2026-04-16 21:25 17.60598 62.58093 30892 ft 525 kts 140°
2026-04-16 21:25 17.55093 62.63128 30895 ft 525 kts 140°
2026-04-16 21:26 17.49596 62.68152 30898 ft 524 kts 140°
2026-04-16 21:26 17.44097 62.73174 30893 ft 524 kts 140°
2026-04-16 21:27 17.38599 62.78190 30891 ft 524 kts 140°
2026-04-16 21:27 17.33102 62.83201 30892 ft 524 kts 140°
2026-04-16 21:28 17.27611 62.88203 30895 ft 523 kts 140°
2026-04-16 21:28 17.22155 62.93169 30898 ft 523 kts 140°
2026-04-16 21:29 17.16669 62.98158 30896 ft 523 kts 140°
2026-04-16 21:29 17.11182 63.03145 30899 ft 522 kts 140°
2026-04-16 21:30 17.05698 63.08126 30896 ft 522 kts 140°
2026-04-16 21:30 17.00212 63.13098 30898 ft 522 kts 141°
2026-04-16 21:31 16.94648 63.17966 30902 ft 521 kts 142°
2026-04-16 21:31 16.89049 63.22777 30898 ft 521 kts 142°
2026-04-16 21:32 16.83459 63.27593 30896 ft 521 kts 142°
2026-04-16 21:32 16.77883 63.32416 30896 ft 521 kts 142°
2026-04-16 21:33 16.72308 63.37243 30900 ft 521 kts 142°
2026-04-16 21:33 16.66731 63.42066 30895 ft 521 kts 142°
2026-04-16 21:34 16.61156 63.46882 30896 ft 520 kts 143°
2026-04-16 21:34 16.56527 63.50880 30894 ft 520 kts 143°
2026-04-16 21:35 16.50957 63.55685 30896 ft 520 kts 143°
2026-04-16 21:35 16.45389 63.60483 30893 ft 519 kts 143°
2026-04-16 21:36 16.39819 63.65281 30894 ft 519 kts 143°
2026-04-16 21:36 16.34249 63.70075 30894 ft 519 kts 143°
2026-04-16 21:37 16.28678 63.74866 30888 ft 520 kts 144°
2026-04-16 21:37 16.23105 63.79654 30895 ft 519 kts 144°
2026-04-16 21:38 16.17535 63.84438 30888 ft 519 kts 144°
2026-04-16 21:38 16.11965 63.89218 30891 ft 519 kts 144°
2026-04-16 21:39 16.06399 63.93990 30895 ft 519 kts 144°
2026-04-16 21:39 16.00831 63.98761 30886 ft 518 kts 144°
2026-04-16 21:40 15.95305 64.03492 30895 ft 518 kts 144°
2026-04-16 21:40 15.89744 64.08250 30898 ft 517 kts 145°
2026-04-16 21:41 15.84197 64.12992 30888 ft 516 kts 145°
2026-04-16 21:41 15.78663 64.17720 30888 ft 514 kts 145°
2026-04-16 21:42 15.73139 64.22435 30886 ft 514 kts 145°
2026-04-16 21:42 15.67620 64.27143 30892 ft 513 kts 145°
2026-04-16 21:43 15.62098 64.31849 30891 ft 514 kts 145°
2026-04-16 21:43 15.56574 64.36554 30884 ft 514 kts 145°
2026-04-16 21:44 15.51054 64.41253 30885 ft 513 kts 145°
2026-04-16 21:44 15.45542 64.45942 30873 ft 512 kts 145°
2026-04-16 21:45 15.40036 64.50622 30884 ft 512 kts 145°
2026-04-16 21:45 15.34530 64.55297 30880 ft 512 kts 145°
2026-04-16 21:46 15.29025 64.59970 30878 ft 512 kts 145°
2026-04-16 21:46 15.23554 64.64610 30885 ft 512 kts 145°
2026-04-16 21:47 15.18005 64.69314 30882 ft 512 kts 145°
2026-04-16 21:47 15.12529 64.73952 30884 ft 512 kts 145°
2026-04-16 21:48 15.06975 64.78653 30873 ft 513 kts 145°
2026-04-16 21:48 15.01489 64.83293 30881 ft 513 kts 145°
2026-04-16 21:49 14.95930 64.87992 30862 ft 513 kts 145°
2026-04-16 21:49 14.90405 64.92659 30880 ft 513 kts 145°
2026-04-16 21:50 14.84916 64.97293 30879 ft 512 kts 145°
2026-04-16 21:50 14.79403 65.01944 30879 ft 511 kts 145°
2026-04-16 21:51 14.73904 65.06580 30872 ft 510 kts 145°
2026-04-16 21:51 14.68415 65.11204 30878 ft 509 kts 145°
2026-04-16 21:52 14.62936 65.15818 30878 ft 508 kts 145°
2026-04-16 21:52 14.57458 65.20426 30870 ft 508 kts 145°
2026-04-16 21:53 14.51985 65.25024 30871 ft 507 kts 145°
2026-04-16 21:53 14.46512 65.29619 30868 ft 507 kts 145°
2026-04-16 21:54 14.41043 65.34210 30868 ft 507 kts 145°
2026-04-16 21:54 14.35575 65.38798 30873 ft 507 kts 145°
2026-04-16 21:55 14.30105 65.43384 30869 ft 507 kts 145°
2026-04-16 21:55 14.24637 65.47966 30861 ft 506 kts 145°
2026-04-16 21:56 14.19171 65.52543 30867 ft 506 kts 145°
2026-04-16 21:56 14.13706 65.57117 30863 ft 506 kts 145°
2026-04-16 21:57 14.08239 65.61688 30864 ft 506 kts 145°
2026-04-16 21:57 14.02805 65.66230 30867 ft 507 kts 145°
2026-04-16 21:58 13.97330 65.70803 30860 ft 507 kts 145°
2026-04-16 21:58 13.91847 65.75380 30868 ft 508 kts 145°
2026-04-16 21:59 13.86358 65.79959 30866 ft 508 kts 145°
2026-04-16 21:59 13.80867 65.84537 30865 ft 508 kts 145°
2026-04-16 22:00 13.75372 65.89115 30857 ft 508 kts 145°
2026-04-16 22:00 13.69877 65.93691 30861 ft 508 kts 144°
2026-04-16 22:01 13.64395 65.98254 30862 ft 506 kts 144°
2026-04-16 22:01 13.58929 66.02798 30854 ft 504 kts 144°
2026-04-16 22:02 13.53483 66.07325 30857 ft 503 kts 144°
2026-04-16 22:02 13.48047 66.11840 30858 ft 502 kts 144°
2026-04-16 22:03 13.42615 66.16348 30857 ft 502 kts 144°
2026-04-16 22:03 13.37180 66.20857 30849 ft 502 kts 144°
2026-04-16 22:04 13.31741 66.25366 30853 ft 502 kts 144°
2026-04-16 22:04 13.26296 66.29877 30858 ft 503 kts 144°
2026-04-16 22:05 13.20845 66.34392 30860 ft 504 kts 144°
2026-04-16 22:05 13.15385 66.38911 30858 ft 505 kts 144°
2026-04-16 22:06 13.09917 66.43434 30858 ft 505 kts 144°
2026-04-16 22:06 13.01710 66.50217 30852 ft 506 kts 144°
2026-04-16 22:07 12.96230 66.54743 30855 ft 506 kts 144°
2026-04-16 22:07 12.90744 66.59271 30854 ft 507 kts 144°
2026-04-16 22:08 12.85249 66.63804 30857 ft 507 kts 144°
2026-04-16 22:08 12.79745 66.68342 30854 ft 508 kts 144°
2026-04-16 22:09 12.74236 66.72881 30849 ft 509 kts 144°
2026-04-16 22:09 12.68753 66.77398 30853 ft 509 kts 144°
2026-04-16 22:10 12.63228 66.81945 30851 ft 510 kts 144°
2026-04-16 22:10 12.57697 66.86495 30853 ft 510 kts 144°
2026-04-16 22:11 12.52165 66.91043 30854 ft 510 kts 144°
2026-04-16 22:11 12.46643 66.95581 30849 ft 508 kts 144°
2026-04-16 22:12 12.41147 67.00095 30847 ft 505 kts 143°
2026-04-16 22:12 12.35675 67.04587 30848 ft 503 kts 143°
2026-04-16 22:13 12.30218 67.09063 30852 ft 502 kts 143°
2026-04-16 22:13 12.24773 67.13527 30855 ft 502 kts 144°
2026-04-16 22:14 12.19320 67.17995 30850 ft 502 kts 144°
2026-04-16 22:14 12.13863 67.22464 30847 ft 503 kts 143°
2026-04-16 22:15 12.08392 67.26943 30850 ft 504 kts 143°
2026-04-16 22:15 12.02910 67.31428 30852 ft 505 kts 143°
2026-04-16 22:16 11.97422 67.35917 30846 ft 506 kts 143°
2026-04-16 22:16 11.91923 67.40409 30847 ft 506 kts 143°
2026-04-16 22:17 11.86422 67.44899 30843 ft 506 kts 143°
2026-04-16 22:17 11.80920 67.49390 30843 ft 506 kts 143°
2026-04-16 22:18 11.75459 67.53847 30837 ft 506 kts 143°
2026-04-16 22:18 11.69965 67.58327 30844 ft 505 kts 143°
2026-04-16 22:19 11.64478 67.62801 30845 ft 505 kts 143°
2026-04-16 22:19 11.58993 67.67269 30843 ft 504 kts 143°
2026-04-16 22:20 11.53511 67.71733 30845 ft 504 kts 143°
2026-04-16 22:20 11.48029 67.76194 30852 ft 504 kts 143°
2026-04-16 22:21 11.42550 67.80652 30840 ft 504 kts 143°
2026-04-16 22:21 11.37068 67.85108 30839 ft 504 kts 143°
2026-04-16 22:22 11.31589 67.89561 30839 ft 504 kts 143°
2026-04-16 22:22 11.27033 67.93262 30841 ft 504 kts 143°
2026-04-16 22:23 11.21550 67.97713 30838 ft 504 kts 143°
2026-04-16 22:23 11.16065 68.02164 30836 ft 504 kts 143°
2026-04-16 22:24 11.10577 68.06615 30849 ft 504 kts 143°
2026-04-16 22:24 11.05087 68.11066 30852 ft 505 kts 143°
2026-04-16 22:25 10.99594 68.15517 30850 ft 505 kts 143°
2026-04-16 22:25 10.94097 68.19968 30824 ft 505 kts 143°
2026-04-16 22:26 10.88601 68.24417 30846 ft 505 kts 143°
2026-04-16 22:26 10.83099 68.28869 30845 ft 506 kts 143°
2026-04-16 22:27 10.77591 68.33323 30843 ft 506 kts 143°
2026-04-16 22:27 10.72079 68.37779 30840 ft 506 kts 143°
2026-04-16 22:28 10.66565 68.42234 30843 ft 506 kts 143°
2026-04-16 22:28 10.61088 68.46657 30841 ft 506 kts 143°
2026-04-16 22:29 10.55576 68.51106 30844 ft 506 kts 143°
2026-04-16 22:29 10.50066 68.55551 30837 ft 506 kts 143°
2026-04-16 22:30 10.44555 68.59996 30843 ft 506 kts 143°
2026-04-16 22:30 10.39041 68.64440 30842 ft 506 kts 143°
2026-04-16 22:31 10.33526 68.68883 30843 ft 506 kts 143°
2026-04-16 22:31 10.28010 68.73325 30843 ft 506 kts 143°
2026-04-16 22:32 10.22493 68.77766 30842 ft 506 kts 143°
2026-04-16 22:32 10.16974 68.82206 30843 ft 506 kts 143°
2026-04-16 22:33 10.11452 68.86647 30840 ft 506 kts 143°
2026-04-16 22:33 10.05929 68.91086 30837 ft 507 kts 143°
2026-04-16 22:34 10.00401 68.95529 30841 ft 507 kts 143°
2026-04-16 22:34 9.94870 68.99970 30842 ft 507 kts 143°
2026-04-16 22:35 9.89337 69.04413 30841 ft 507 kts 143°
2026-04-16 22:35 9.83806 69.08851 30839 ft 507 kts 143°
2026-04-16 22:36 9.78283 69.13283 30839 ft 506 kts 143°
2026-04-16 22:36 9.72764 69.17708 30839 ft 505 kts 143°
2026-04-16 22:37 9.67287 69.22091 30841 ft 505 kts 143°
2026-04-16 22:37 9.61773 69.26502 30841 ft 505 kts 143°
2026-04-16 22:38 9.56261 69.30911 30840 ft 505 kts 143°
2026-04-16 22:38 9.50747 69.35321 30841 ft 505 kts 143°
2026-04-16 22:39 9.45234 69.39728 30842 ft 505 kts 143°
2026-04-16 22:39 9.39722 69.44133 30840 ft 505 kts 143°
2026-04-16 22:40 9.34207 69.48537 30842 ft 505 kts 143°
2026-04-16 22:40 9.28693 69.52939 30843 ft 505 kts 143°
2026-04-16 22:41 9.23177 69.57342 30839 ft 505 kts 143°
2026-04-16 22:41 9.17666 69.61738 30843 ft 504 kts 143°
2026-04-16 22:42 9.12155 69.66133 30842 ft 504 kts 143°
2026-04-16 22:42 9.06646 69.70524 30843 ft 504 kts 143°
2026-04-16 22:43 9.01140 69.74911 30841 ft 504 kts 143°
2026-04-16 22:43 8.95633 69.79297 30840 ft 504 kts 143°
2026-04-16 22:44 8.90128 69.83680 30843 ft 504 kts 143°
2026-04-16 22:44 8.84620 69.88063 30838 ft 504 kts 143°
2026-04-16 22:45 8.79115 69.92443 30843 ft 504 kts 143°
2026-04-16 22:45 8.73644 69.96794 30844 ft 504 kts 143°
2026-04-16 22:46 8.68137 70.01171 30841 ft 504 kts 143°
2026-04-16 22:46 8.62627 70.05550 30840 ft 504 kts 143°
2026-04-16 22:47 8.57116 70.09927 30843 ft 504 kts 143°
2026-04-16 22:47 8.51604 70.14304 30839 ft 504 kts 143°
2026-04-16 22:48 8.46090 70.18680 30843 ft 504 kts 143°
2026-04-16 22:48 8.40576 70.23054 30842 ft 504 kts 143°
2026-04-16 22:49 8.35056 70.27432 30843 ft 504 kts 143°
2026-04-16 22:49 8.29536 70.31809 30841 ft 505 kts 143°
2026-04-16 22:50 8.24012 70.36187 30843 ft 505 kts 143°
2026-04-16 22:50 8.18490 70.40562 30838 ft 505 kts 143°
2026-04-16 22:51 8.12966 70.44937 30843 ft 505 kts 143°
2026-04-16 22:51 8.07444 70.49308 30841 ft 504 kts 143°
2026-04-16 22:52 8.01923 70.53678 30843 ft 504 kts 143°
2026-04-16 22:52 7.96403 70.58044 30840 ft 504 kts 143°
2026-04-16 22:53 7.90883 70.62410 30844 ft 504 kts 143°
2026-04-16 22:53 7.85368 70.66770 30842 ft 504 kts 143°
2026-04-16 22:54 7.79852 70.71129 30839 ft 504 kts 143°
2026-04-16 22:54 7.74339 70.75485 30843 ft 503 kts 143°
2026-04-16 22:55 7.68860 70.79812 30844 ft 504 kts 143°
2026-04-16 22:55 7.63346 70.84165 30840 ft 504 kts 143°
2026-04-16 22:56 7.57830 70.88520 30841 ft 504 kts 142°
2026-04-16 22:56 7.52312 70.92874 30842 ft 504 kts 142°
2026-04-16 22:57 7.46917 70.97386 30842 ft 504 kts 139°
2026-04-16 22:57 7.41691 71.02101 30838 ft 505 kts 139°
2026-04-16 22:58 7.36468 71.06834 30837 ft 505 kts 139°
2026-04-16 22:58 7.31230 71.11554 30838 ft 505 kts 139°
2026-04-16 22:59 7.25981 71.16267 30842 ft 505 kts 139°
2026-04-16 22:59 7.20730 71.20976 30842 ft 505 kts 139°
2026-04-16 23:00 7.15485 71.25679 30838 ft 504 kts 139°
2026-04-16 23:00 7.10248 71.30375 30840 ft 503 kts 139°
2026-04-16 23:01 7.05023 71.35060 30846 ft 503 kts 139°
2026-04-16 23:01 6.99799 71.39741 30843 ft 502 kts 139°
2026-04-16 23:02 6.94614 71.44386 30842 ft 502 kts 139°
2026-04-16 23:02 6.89393 71.49061 30844 ft 502 kts 139°
2026-04-16 23:03 6.84168 71.53739 30843 ft 503 kts 139°
2026-04-16 23:03 6.78940 71.58419 30845 ft 503 kts 139°
2026-04-16 23:04 6.73706 71.63102 30841 ft 503 kts 139°
2026-04-16 23:04 6.68472 71.67783 30842 ft 504 kts 139°
2026-04-16 23:05 6.63238 71.72464 30842 ft 504 kts 139°
2026-04-16 23:05 6.58003 71.77144 30841 ft 503 kts 139°
2026-04-16 23:06 6.52767 71.81823 30843 ft 503 kts 139°
2026-04-16 23:06 6.47532 71.86501 30841 ft 504 kts 139°
2026-04-16 23:07 6.42295 71.91178 30839 ft 504 kts 139°
2026-04-16 23:07 6.37053 71.95859 30843 ft 504 kts 139°
2026-04-16 23:08 6.31809 72.00540 30841 ft 504 kts 139°
2026-04-16 23:08 6.26564 72.05221 30842 ft 504 kts 139°
2026-04-16 23:09 6.21318 72.09901 30839 ft 504 kts 139°
2026-04-16 23:09 6.16072 72.14580 30843 ft 504 kts 139°
2026-04-16 23:10 6.10825 72.19259 30843 ft 504 kts 139°
2026-04-16 23:10 6.05577 72.23937 30843 ft 504 kts 139°
2026-04-16 23:11 6.00363 72.28583 30840 ft 505 kts 139°
2026-04-16 23:11 5.95110 72.33264 30842 ft 505 kts 139°
2026-04-16 23:12 5.89857 72.37943 30842 ft 505 kts 139°
2026-04-16 23:12 5.85453 72.41864 30841 ft 505 kts 139°
2026-04-16 23:13 5.80195 72.46545 30840 ft 505 kts 139°
2026-04-16 23:13 5.74974 72.51193 30841 ft 505 kts 139°
2026-04-16 23:14 5.69713 72.55874 30842 ft 505 kts 139°
2026-04-16 23:14 5.64452 72.60554 30841 ft 505 kts 139°
2026-04-16 23:15 5.56552 72.67580 30843 ft 506 kts 139°
2026-04-16 23:16 5.51283 72.72264 30843 ft 506 kts 139°
2026-04-16 23:16 5.46012 72.76949 30841 ft 506 kts 139°
2026-04-16 23:17 5.40739 72.81634 30840 ft 506 kts 139°
2026-04-16 23:17 5.35463 72.86322 30842 ft 506 kts 139°
2026-04-16 23:18 5.30190 72.91006 30842 ft 506 kts 139°
2026-04-16 23:18 5.24912 72.95692 30839 ft 506 kts 139°
2026-04-16 23:19 5.19635 73.00376 30847 ft 507 kts 139°
2026-04-16 23:19 5.14354 73.05064 30843 ft 507 kts 139°
2026-04-16 23:20 5.09070 73.09753 30843 ft 507 kts 139°
2026-04-16 23:20 5.03788 73.14439 30843 ft 507 kts 139°
2026-04-16 23:21 4.98507 73.19122 30846 ft 507 kts 139°
2026-04-16 23:21 4.93228 73.23804 30843 ft 506 kts 139°
2026-04-16 23:22 4.87950 73.28482 30843 ft 506 kts 139°
2026-04-16 23:22 4.82675 73.33158 30844 ft 506 kts 139°
2026-04-16 23:23 4.77398 73.37834 30840 ft 506 kts 139°
2026-04-16 23:23 4.72118 73.42512 30840 ft 506 kts 139°
2026-04-16 23:24 4.66842 73.47186 30845 ft 506 kts 139°
2026-04-16 23:24 4.61565 73.51859 30842 ft 506 kts 139°
2026-04-16 23:25 4.56288 73.56531 30845 ft 506 kts 139°
2026-04-16 23:25 4.51010 73.61204 30842 ft 506 kts 139°
2026-04-16 23:26 4.45730 73.65877 30840 ft 506 kts 138°
2026-04-16 23:26 4.40450 73.70549 30841 ft 506 kts 138°
2026-04-16 23:27 4.35171 73.75220 30844 ft 506 kts 139°
2026-04-16 23:27 4.29895 73.79887 30843 ft 506 kts 139°
2026-04-16 23:28 4.24622 73.84550 30840 ft 506 kts 139°
2026-04-16 23:28 4.19349 73.89212 30844 ft 505 kts 139°
2026-04-16 23:29 4.14076 73.93873 30849 ft 506 kts 139°
2026-04-16 23:29 4.08800 73.98537 30845 ft 506 kts 139°
2026-04-16 23:30 4.03520 74.03202 30841 ft 506 kts 138°
2026-04-16 23:30 3.98279 74.07833 30847 ft 506 kts 138°
2026-04-16 23:31 3.93000 74.12496 30849 ft 506 kts 138°
2026-04-16 23:31 3.87720 74.17160 30848 ft 506 kts 138°
2026-04-16 23:32 3.82404 74.21855 30846 ft 506 kts 138°
2026-04-16 23:32 3.77156 74.26489 30847 ft 507 kts 138°
2026-04-16 23:33 3.71871 74.31153 30847 ft 506 kts 138°
2026-04-16 23:33 3.66586 74.35819 30845 ft 506 kts 139°
2026-04-16 23:34 3.61303 74.40481 30846 ft 506 kts 138°
2026-04-16 23:34 3.56019 74.45143 30846 ft 507 kts 139°
2026-04-16 23:35 3.50731 74.49808 30850 ft 507 kts 138°
2026-04-16 23:35 3.45439 74.54476 30851 ft 507 kts 138°
2026-04-16 23:36 3.40142 74.59147 30849 ft 507 kts 139°
2026-04-16 23:36 3.34847 74.63817 30848 ft 507 kts 139°
2026-04-16 23:37 3.29551 74.68486 30850 ft 507 kts 138°
2026-04-16 23:37 3.24257 74.73152 30848 ft 507 kts 138°
2026-04-16 23:38 3.18972 74.77811 30844 ft 506 kts 138°
2026-04-16 23:38 3.13689 74.82467 30851 ft 506 kts 138°
2026-04-16 23:39 3.08404 74.87124 30851 ft 506 kts 139°
2026-04-16 23:39 3.03115 74.91783 30851 ft 507 kts 139°
2026-04-16 23:40 2.97822 74.96446 30848 ft 507 kts 139°
2026-04-16 23:40 2.92532 75.01106 30851 ft 507 kts 138°
2026-04-16 23:41 2.87244 75.05763 30849 ft 506 kts 138°
2026-04-16 23:41 2.81955 75.10420 30845 ft 507 kts 138°
2026-04-16 23:42 2.76663 75.15079 30859 ft 507 kts 138°
2026-04-16 23:42 2.71363 75.19745 30852 ft 508 kts 138°
2026-04-16 23:43 2.66092 75.24386 30856 ft 509 kts 138°
2026-04-16 23:43 2.60781 75.29060 30854 ft 508 kts 138°
2026-04-16 23:44 2.55472 75.33731 30846 ft 508 kts 138°
2026-04-16 23:44 2.50172 75.38395 30849 ft 507 kts 138°
2026-04-16 23:45 2.44885 75.43047 30851 ft 506 kts 138°
2026-04-16 23:45 2.39596 75.47700 30858 ft 507 kts 138°
2026-04-16 23:46 2.34301 75.52359 30845 ft 508 kts 138°
2026-04-16 23:46 2.28994 75.57025 30859 ft 508 kts 138°
2026-04-16 23:47 2.23679 75.61701 30858 ft 509 kts 138°
2026-04-16 23:47 2.18369 75.66370 30847 ft 509 kts 139°
2026-04-16 23:48 2.13060 75.71037 30846 ft 508 kts 138°
2026-04-16 23:48 2.07763 75.75694 30854 ft 506 kts 138°
2026-04-16 23:49 2.02475 75.80344 30844 ft 507 kts 139°
2026-04-16 23:49 1.97175 75.85003 30860 ft 508 kts 139°
2026-04-16 23:50 1.91865 75.89670 30843 ft 509 kts 139°
2026-04-16 23:50 1.86537 75.94353 30854 ft 510 kts 139°
2026-04-16 23:51 1.81200 75.99044 30849 ft 511 kts 139°
2026-04-16 23:51 1.75889 76.03710 30855 ft 512 kts 139°
2026-04-16 23:52 1.70536 76.08414 30854 ft 512 kts 139°
2026-04-16 23:52 1.65182 76.13117 30852 ft 512 kts 139°
2026-04-16 23:53 1.59831 76.17819 30852 ft 512 kts 139°
2026-04-16 23:53 1.54484 76.22516 30852 ft 512 kts 139°
2026-04-16 23:54 1.49141 76.27209 30848 ft 511 kts 139°
2026-04-16 23:54 1.43804 76.31898 30856 ft 510 kts 139°
2026-04-16 23:55 1.38479 76.36574 30853 ft 509 kts 139°
2026-04-16 23:55 1.33162 76.41244 30854 ft 509 kts 139°
2026-04-16 23:56 1.27850 76.45909 30852 ft 508 kts 139°
2026-04-16 23:56 1.22541 76.50571 30857 ft 508 kts 139°
2026-04-16 23:57 1.17228 76.55236 30858 ft 509 kts 139°
2026-04-16 23:57 1.12808 76.59117 30854 ft 509 kts 139°
2026-04-16 23:58 1.07484 76.63791 30861 ft 509 kts 140°
2026-04-16 23:58 1.02162 76.68464 30855 ft 509 kts 140°
2026-04-16 23:59 0.96844 76.73134 30855 ft 509 kts 140°
2026-04-16 23:59 0.91528 76.77800 30854 ft 508 kts 140°
2026-04-17 00:00 0.86215 76.82464 30841 ft 508 kts 140°
2026-04-17 00:00 0.80905 76.87125 30859 ft 508 kts 139°
2026-04-17 00:01 0.75594 76.91787 30863 ft 508 kts 139°
2026-04-17 00:01 0.70280 76.96452 30857 ft 509 kts 140°
2026-04-17 00:02 0.64964 77.01118 30851 ft 509 kts 140°
2026-04-17 00:02 0.59650 77.05782 30854 ft 509 kts 140°
2026-04-17 00:03 0.54332 77.10449 30857 ft 509 kts 140°
2026-04-17 00:03 0.49053 77.15083 30857 ft 509 kts 139°
2026-04-17 00:04 0.43738 77.19747 30856 ft 508 kts 139°
2026-04-17 00:04 0.38425 77.24410 30855 ft 508 kts 139°
2026-04-17 00:05 0.33111 77.29074 30863 ft 508 kts 139°
2026-04-17 00:05 0.27797 77.33738 30856 ft 508 kts 139°
2026-04-17 00:06 0.22483 77.38401 30854 ft 508 kts 139°
2026-04-17 00:06 0.17172 77.43062 30859 ft 508 kts 139°
2026-04-17 00:07 0.11858 77.47725 30860 ft 508 kts 139°
2026-04-17 00:07 0.06546 77.52387 30855 ft 508 kts 139°
2026-04-17 00:08 0.01234 77.57049 30858 ft 508 kts 139°
2026-04-17 00:08 -0.04078 77.61711 30859 ft 508 kts 139°
2026-04-17 00:09 -0.09383 77.66366 30854 ft 507 kts 139°
2026-04-17 00:09 -0.14686 77.71021 30858 ft 507 kts 139°
2026-04-17 00:10 -0.19984 77.75670 30862 ft 507 kts 139°
2026-04-17 00:10 -0.25280 77.80318 30861 ft 507 kts 139°
2026-04-17 00:11 -0.30576 77.84966 30861 ft 507 kts 139°
2026-04-17 00:11 -0.35872 77.89615 30859 ft 507 kts 139°
2026-04-17 00:12 -0.41169 77.94264 30858 ft 506 kts 139°
2026-04-17 00:12 -0.46456 77.98906 30855 ft 506 kts 139°
2026-04-17 00:13 -0.51668 78.03628 30860 ft 505 kts 137°
2026-04-17 00:13 -0.56728 78.08503 30861 ft 505 kts 136°
2026-04-17 00:14 -0.61779 78.13388 30861 ft 505 kts 136°
2026-04-17 00:14 -0.66852 78.18247 30858 ft 505 kts 137°
2026-04-17 00:15 -0.71937 78.23091 30856 ft 505 kts 137°
2026-04-17 00:15 -0.77027 78.27937 30862 ft 505 kts 137°
2026-04-17 00:16 -0.82116 78.32784 30859 ft 505 kts 137°
2026-04-17 00:16 -0.87205 78.37634 30861 ft 506 kts 137°
2026-04-17 00:17 -0.92259 78.42451 30861 ft 506 kts 137°
2026-04-17 00:17 -0.97352 78.47304 30860 ft 506 kts 137°
2026-04-17 00:18 -1.02440 78.52154 30860 ft 506 kts 137°
2026-04-17 00:18 -1.07531 78.57005 30860 ft 506 kts 137°
2026-04-17 00:19 -1.12619 78.61856 30863 ft 506 kts 136°
2026-04-17 00:19 -1.17710 78.66708 30860 ft 506 kts 137°
2026-04-17 00:20 -1.22799 78.71560 30856 ft 506 kts 136°
2026-04-17 00:20 -1.27893 78.76416 30859 ft 506 kts 136°
2026-04-17 00:21 -1.32990 78.81275 30861 ft 506 kts 136°
2026-04-17 00:21 -1.38088 78.86136 30863 ft 507 kts 136°
2026-04-17 00:22 -1.45735 78.93428 30863 ft 507 kts 136°
2026-04-17 00:22 -1.50833 78.98289 30863 ft 507 kts 136°
2026-04-17 00:23 -1.55935 79.03154 30863 ft 507 kts 136°
2026-04-17 00:23 -1.61038 79.08021 30861 ft 507 kts 136°
2026-04-17 00:24 -1.66142 79.12890 30861 ft 508 kts 136°
2026-04-17 00:24 -1.71256 79.17768 30861 ft 508 kts 136°
2026-04-17 00:25 -1.76370 79.22646 30864 ft 508 kts 136°
2026-04-17 00:25 -1.81485 79.27527 30863 ft 508 kts 136°
2026-04-17 00:26 -1.86600 79.32408 30860 ft 508 kts 136°
2026-04-17 00:26 -1.91712 79.37287 30860 ft 508 kts 136°
2026-04-17 00:27 -1.96823 79.42165 30860 ft 508 kts 136°
2026-04-17 00:27 -2.01929 79.47039 30860 ft 507 kts 136°
2026-04-17 00:28 -2.07033 79.51911 30860 ft 507 kts 136°
2026-04-17 00:28 -2.12135 79.56784 30860 ft 507 kts 136°
2026-04-17 00:29 -2.17234 79.61657 30863 ft 507 kts 136°
2026-04-17 00:29 -2.22333 79.66529 30863 ft 507 kts 136°
2026-04-17 00:30 -2.27430 79.71400 30868 ft 507 kts 136°
2026-04-17 00:30 -2.32524 79.76269 30864 ft 506 kts 136°
2026-04-17 00:31 -2.37611 79.81131 30858 ft 506 kts 136°
2026-04-17 00:31 -2.42698 79.85994 30861 ft 506 kts 136°
2026-04-17 00:32 -2.47786 79.90858 30860 ft 506 kts 136°
2026-04-17 00:32 -2.52877 79.95727 30861 ft 507 kts 136°
2026-04-17 00:33 -2.57973 80.00600 30863 ft 507 kts 136°
2026-04-17 00:33 -2.63035 80.05441 30863 ft 507 kts 136°
2026-04-17 00:34 -2.68132 80.10316 30860 ft 507 kts 136°
2026-04-17 00:34 -2.73227 80.15190 30860 ft 507 kts 136°
2026-04-17 00:35 -2.78320 80.20063 30859 ft 507 kts 136°
2026-04-17 00:35 -2.83413 80.24937 30861 ft 507 kts 136°
2026-04-17 00:36 -2.88507 80.29812 30863 ft 507 kts 136°
2026-04-17 00:36 -2.93600 80.34687 30863 ft 507 kts 136°
2026-04-17 00:37 -2.98692 80.39561 30865 ft 507 kts 136°
2026-04-17 00:37 -3.03786 80.44438 30867 ft 506 kts 136°
2026-04-17 00:38 -3.08874 80.49309 30862 ft 506 kts 136°
2026-04-17 00:38 -3.13960 80.54180 30862 ft 506 kts 136°
2026-04-17 00:39 -3.19048 80.59053 30863 ft 506 kts 136°
2026-04-17 00:39 -3.24140 80.63931 30864 ft 507 kts 136°
2026-04-17 00:40 -3.29237 80.68815 30864 ft 507 kts 136°
2026-04-17 00:40 -3.34335 80.73701 30863 ft 508 kts 136°
2026-04-17 00:41 -3.39437 80.78590 30863 ft 508 kts 136°
2026-04-17 00:41 -3.44535 80.83479 30863 ft 508 kts 136°
2026-04-17 00:42 -3.49638 80.88371 30863 ft 508 kts 136°
2026-04-17 00:42 -3.53928 80.92375 30861 ft 508 kts 138°
2026-04-17 00:43 -3.59231 80.97049 30863 ft 508 kts 139°
2026-04-17 00:43 -3.64550 81.01706 30863 ft 508 kts 139°
2026-04-17 00:44 -3.69852 81.06392 30860 ft 508 kts 138°
2026-04-17 00:44 -3.75139 81.11094 30860 ft 509 kts 138°
2026-04-17 00:45 -3.80424 81.15801 30864 ft 508 kts 138°
2026-04-17 00:45 -3.85704 81.20502 30862 ft 508 kts 138°
2026-04-17 00:46 -3.90979 81.25196 30861 ft 507 kts 138°
2026-04-17 00:46 -3.96249 81.29886 30863 ft 507 kts 138°
2026-04-17 00:47 -4.01519 81.34578 30864 ft 507 kts 138°
2026-04-17 00:47 -4.06791 81.39273 30863 ft 507 kts 138°
2026-04-17 00:48 -4.12064 81.43969 30865 ft 507 kts 138°
2026-04-17 00:48 -4.17340 81.48668 30865 ft 507 kts 138°
2026-04-17 00:49 -4.22616 81.53369 30866 ft 507 kts 138°
2026-04-17 00:49 -4.27890 81.58068 30866 ft 507 kts 138°
2026-04-17 00:50 -4.33166 81.62771 30866 ft 507 kts 138°
2026-04-17 00:50 -4.38438 81.67471 30866 ft 507 kts 138°
2026-04-17 00:51 -4.43712 81.72172 30866 ft 507 kts 138°
2026-04-17 00:51 -4.48945 81.76840 30866 ft 507 kts 138°
2026-04-17 00:52 -4.54218 81.81543 30865 ft 507 kts 138°
2026-04-17 00:52 -4.59487 81.86244 30866 ft 507 kts 138°
2026-04-17 00:53 -4.64759 81.90948 30866 ft 507 kts 138°
2026-04-17 00:53 -4.70031 81.95653 30866 ft 508 kts 138°
2026-04-17 00:54 -4.75305 82.00362 30866 ft 508 kts 138°
2026-04-17 00:54 -4.80578 82.05070 30866 ft 508 kts 138°
2026-04-17 00:55 -4.85853 82.09781 30867 ft 508 kts 138°
2026-04-17 00:55 -4.91131 82.14496 30860 ft 508 kts 138°
2026-04-17 00:56 -4.96408 82.19210 30864 ft 508 kts 138°
2026-04-17 00:56 -5.01687 82.23929 30863 ft 509 kts 138°
2026-04-17 00:57 -5.06973 82.28653 30864 ft 509 kts 138°
2026-04-17 00:57 -5.12223 82.33348 30862 ft 509 kts 138°
2026-04-17 00:58 -5.17512 82.38078 30863 ft 509 kts 138°
2026-04-17 00:58 -5.22800 82.42807 30862 ft 509 kts 138°
2026-04-17 00:59 -5.28089 82.47540 30863 ft 509 kts 138°
2026-04-17 00:59 -5.33373 82.52269 30865 ft 509 kts 138°
2026-04-17 01:00 -5.38654 82.56996 30866 ft 509 kts 138°
2026-04-17 01:00 -5.43930 82.61720 30871 ft 508 kts 138°
2026-04-17 01:01 -5.49204 82.66444 30866 ft 508 kts 138°
2026-04-17 01:01 -5.54480 82.71170 30870 ft 509 kts 138°
2026-04-17 01:02 -5.59759 82.75900 30866 ft 509 kts 138°
2026-04-17 01:02 -5.65040 82.80633 30870 ft 509 kts 138°
2026-04-17 01:03 -5.70323 82.85370 30869 ft 509 kts 138°
2026-04-17 01:03 -5.75612 82.90112 30866 ft 510 kts 138°
2026-04-17 01:04 -5.80903 82.94858 30867 ft 510 kts 138°
2026-04-17 01:04 -5.86195 82.99606 30865 ft 510 kts 138°
2026-04-17 01:05 -5.91485 83.04354 30868 ft 510 kts 138°
2026-04-17 01:05 -5.96775 83.09103 30863 ft 510 kts 138°
2026-04-17 01:06 -6.02059 83.13848 30866 ft 509 kts 138°
2026-04-17 01:06 -6.07335 83.18587 30865 ft 509 kts 138°
2026-04-17 01:07 -6.12607 83.23325 30859 ft 508 kts 138°
2026-04-17 01:07 -6.17874 83.28059 30863 ft 508 kts 138°
2026-04-17 01:08 -6.23088 83.32854 30862 ft 508 kts 135°
2026-04-17 01:08 -6.28034 83.37918 30866 ft 508 kts 134°
2026-04-17 01:09 -6.32947 83.43017 30863 ft 508 kts 134°
2026-04-17 01:09 -6.37874 83.48108 30863 ft 508 kts 134°
2026-04-17 01:10 -6.42814 83.53191 30860 ft 508 kts 134°
2026-04-17 01:10 -6.47725 83.58237 30865 ft 508 kts 134°
2026-04-17 01:11 -6.52698 83.63350 30858 ft 508 kts 134°
2026-04-17 01:11 -6.57602 83.68395 30861 ft 508 kts 134°
2026-04-17 01:12 -6.62541 83.73478 30863 ft 508 kts 134°
2026-04-17 01:12 -6.67476 83.78559 30863 ft 508 kts 134°
2026-04-17 01:13 -6.72411 83.83641 30859 ft 508 kts 134°
2026-04-17 01:13 -6.77345 83.88724 30861 ft 508 kts 134°
2026-04-17 01:14 -6.82277 83.93806 30858 ft 508 kts 134°
2026-04-17 01:14 -6.87209 83.98889 30862 ft 508 kts 134°
2026-04-17 01:15 -6.92141 84.03975 30860 ft 508 kts 134°
2026-04-17 01:15 -6.97072 84.09061 30860 ft 508 kts 134°
2026-04-17 01:16 -7.02003 84.14148 30862 ft 508 kts 134°
2026-04-17 01:16 -7.06937 84.19240 30861 ft 508 kts 134°
2026-04-17 01:17 -7.11834 84.24296 30860 ft 508 kts 134°
2026-04-17 01:17 -7.16765 84.29389 30860 ft 508 kts 134°
2026-04-17 01:18 -7.21695 84.34482 30860 ft 508 kts 134°
2026-04-17 01:18 -7.26625 84.39576 30860 ft 508 kts 134°
2026-04-17 01:19 -7.31552 84.44670 30861 ft 508 kts 134°
2026-04-17 01:19 -7.36479 84.49766 30861 ft 508 kts 134°
2026-04-17 01:20 -7.41405 84.54861 30860 ft 507 kts 134°
2026-04-17 01:20 -7.46330 84.59958 30860 ft 507 kts 134°
2026-04-17 01:21 -7.51253 84.65054 30860 ft 507 kts 134°
2026-04-17 01:21 -7.56175 84.70150 30857 ft 507 kts 133°
2026-04-17 01:22 -7.61099 84.75251 30862 ft 508 kts 133°
2026-04-17 01:22 -7.66025 84.80356 30860 ft 508 kts 133°
2026-04-17 01:23 -7.70951 84.85463 30861 ft 508 kts 133°
2026-04-17 01:23 -7.75880 84.90574 30860 ft 508 kts 133°
2026-04-17 01:24 -7.80808 84.95686 30860 ft 508 kts 133°
2026-04-17 01:24 -7.85735 85.00800 30858 ft 508 kts 133°
2026-04-17 01:25 -7.90628 85.05879 30857 ft 508 kts 133°
2026-04-17 01:25 -7.95550 85.10991 30856 ft 508 kts 133°
2026-04-17 01:26 -8.00472 85.16105 30861 ft 508 kts 133°
2026-04-17 01:26 -8.05393 85.21221 30860 ft 508 kts 133°
2026-04-17 01:27 -8.10317 85.26341 30859 ft 508 kts 133°
2026-04-17 01:27 -8.15242 85.31465 30858 ft 509 kts 133°
2026-04-17 01:28 -8.20335 85.36421 30859 ft 509 kts 137°
2026-04-17 01:28 -8.25621 85.41171 30860 ft 509 kts 137°
2026-04-17 01:29 -8.33561 85.48293 30855 ft 509 kts 137°
2026-04-17 01:30 -8.38842 85.53069 30864 ft 510 kts 137°
2026-04-17 01:30 -8.44118 85.57853 30864 ft 510 kts 137°
2026-04-17 01:31 -8.48505 85.61832 30860 ft 510 kts 137°
2026-04-17 01:31 -8.53786 85.66622 30861 ft 510 kts 137°
2026-04-17 01:32 -8.59068 85.71414 30859 ft 510 kts 137°
2026-04-17 01:32 -8.64347 85.76204 30860 ft 510 kts 137°
2026-04-17 01:33 -8.69624 85.80994 30859 ft 510 kts 137°
2026-04-17 01:33 -8.74903 85.85789 30863 ft 510 kts 137°
2026-04-17 01:34 -8.80183 85.90587 30860 ft 511 kts 137°
2026-04-17 01:34 -8.85468 85.95390 30861 ft 511 kts 137°
2026-04-17 01:35 -8.90755 86.00198 30861 ft 511 kts 137°
2026-04-17 01:35 -8.96043 86.05009 30861 ft 511 kts 137°
2026-04-17 01:36 -9.01330 86.09820 30861 ft 511 kts 137°
2026-04-17 01:36 -9.06616 86.14633 30861 ft 511 kts 137°
2026-04-17 01:37 -9.11903 86.19448 30859 ft 511 kts 137°
2026-04-17 01:37 -9.17187 86.24263 30865 ft 511 kts 137°
2026-04-17 01:38 -9.22472 86.29081 30866 ft 511 kts 137°
2026-04-17 01:38 -9.27720 86.33867 30864 ft 511 kts 137°
2026-04-17 01:39 -9.33006 86.38690 30862 ft 512 kts 137°
2026-04-17 01:39 -9.38292 86.43514 30867 ft 512 kts 137°
2026-04-17 01:40 -9.43578 86.48341 30864 ft 512 kts 137°
2026-04-17 01:40 -9.48859 86.53165 30863 ft 511 kts 137°
2026-04-17 01:41 -9.54137 86.57989 30860 ft 511 kts 137°
2026-04-17 01:41 -9.59409 86.62810 30863 ft 510 kts 137°
2026-04-17 01:42 -9.64680 86.67631 30867 ft 511 kts 137°
2026-04-17 01:42 -9.69954 86.72457 30865 ft 511 kts 137°
2026-04-17 01:43 -9.75226 86.77284 30868 ft 511 kts 137°
2026-04-17 01:43 -9.80500 86.82115 30867 ft 511 kts 137°
2026-04-17 01:44 -9.85777 86.86951 30864 ft 511 kts 137°
2026-04-17 01:44 -9.91050 86.91786 30867 ft 511 kts 137°
2026-04-17 01:45 -9.96327 86.96628 30867 ft 512 kts 137°
2026-04-17 01:45 -10.01591 87.01482 30866 ft 511 kts 136°
2026-04-17 01:46 -10.06711 87.06490 30866 ft 511 kts 135°
2026-04-17 01:46 -10.11771 87.11551 30863 ft 511 kts 135°
2026-04-17 01:47 -10.16850 87.16602 30865 ft 511 kts 135°
2026-04-17 01:47 -10.21911 87.21604 30863 ft 511 kts 135°
2026-04-17 01:48 -10.27017 87.26642 30868 ft 512 kts 135°
2026-04-17 01:48 -10.32122 87.31681 30870 ft 512 kts 135°
2026-04-17 01:49 -10.37231 87.36728 30868 ft 512 kts 135°
2026-04-17 01:49 -10.42336 87.41776 30868 ft 512 kts 135°
2026-04-17 01:50 -10.47436 87.46820 30869 ft 512 kts 135°
2026-04-17 01:50 -10.52533 87.51865 30866 ft 511 kts 135°
2026-04-17 01:51 -10.57628 87.56909 30862 ft 512 kts 135°
2026-04-17 01:51 -10.62739 87.61973 30868 ft 514 kts 135°
2026-04-17 01:52 -10.67870 87.67058 30869 ft 516 kts 135°
2026-04-17 01:52 -10.73015 87.72159 30869 ft 517 kts 135°
2026-04-17 01:53 -10.78165 87.77269 30867 ft 517 kts 135°
2026-04-17 01:53 -10.83308 87.82374 30865 ft 516 kts 135°
2026-04-17 01:54 -10.88443 87.87473 30869 ft 515 kts 135°
2026-04-17 01:54 -10.93565 87.92562 30873 ft 514 kts 135°
2026-04-17 01:55 -10.98683 87.97650 30869 ft 514 kts 135°
2026-04-17 01:55 -11.03797 88.02736 30871 ft 514 kts 135°
2026-04-17 01:56 -11.08874 88.07788 30870 ft 514 kts 135°
2026-04-17 01:56 -11.14019 88.12911 30872 ft 514 kts 135°
2026-04-17 01:57 -11.19129 88.18002 30871 ft 514 kts 135°
2026-04-17 01:57 -11.24208 88.23063 30871 ft 514 kts 135°
2026-04-17 01:58 -11.29317 88.28158 30870 ft 514 kts 135°
2026-04-17 01:58 -11.34432 88.33262 30868 ft 515 kts 135°
2026-04-17 01:59 -11.39560 88.38380 30877 ft 517 kts 135°
2026-04-17 01:59 -11.44700 88.43514 30873 ft 518 kts 135°
2026-04-17 02:00 -11.49847 88.48657 30868 ft 518 kts 135°
2026-04-17 02:00 -11.54994 88.53803 30877 ft 518 kts 135°
2026-04-17 02:01 -11.60134 88.58946 30868 ft 517 kts 135°
2026-04-17 02:01 -11.65267 88.64084 30874 ft 517 kts 135°
2026-04-17 02:02 -11.70399 88.69224 30865 ft 518 kts 135°
2026-04-17 02:02 -11.75546 88.74381 30877 ft 519 kts 135°
2026-04-17 02:03 -11.80710 88.79558 30871 ft 521 kts 135°
2026-04-17 02:03 -11.85888 88.84752 30870 ft 522 kts 135°
2026-04-17 02:04 -11.91064 88.89947 30871 ft 522 kts 135°
2026-04-17 02:04 -11.96231 88.95137 30873 ft 520 kts 135°
2026-04-17 02:05 -12.01385 89.00315 30869 ft 519 kts 135°
2026-04-17 02:05 -12.06529 89.05488 30868 ft 519 kts 136°
2026-04-17 02:06 -12.11678 89.10668 30883 ft 520 kts 136°
2026-04-17 02:06 -12.16837 89.15860 30873 ft 521 kts 136°
2026-04-17 02:07 -12.22003 89.21063 30872 ft 522 kts 136°
2026-04-17 02:07 -12.27169 89.26269 30884 ft 521 kts 136°
2026-04-17 02:08 -12.32316 89.31459 30871 ft 519 kts 136°
2026-04-17 02:08 -12.37441 89.36629 30876 ft 517 kts 136°
2026-04-17 02:09 -12.42551 89.41788 30878 ft 516 kts 136°
2026-04-17 02:09 -12.47659 89.46946 30878 ft 517 kts 136°
2026-04-17 02:10 -12.52782 89.52125 30889 ft 518 kts 136°
2026-04-17 02:10 -12.57920 89.57321 30889 ft 520 kts 136°
2026-04-17 02:11 -12.63068 89.62531 30877 ft 521 kts 136°
2026-04-17 02:11 -12.68209 89.67736 30885 ft 519 kts 136°
2026-04-17 02:12 -12.73337 89.72930 30885 ft 518 kts 136°
2026-04-17 02:12 -12.78458 89.78123 30890 ft 518 kts 136°
2026-04-17 02:13 -12.83578 89.83317 30890 ft 518 kts 136°
2026-04-17 02:13 -12.88707 89.88523 30894 ft 520 kts 136°
2026-04-17 02:14 -12.93852 89.93749 30910 ft 521 kts 136°
2026-04-17 02:14 -12.98974 89.98955 30897 ft 522 kts 136°
2026-04-17 02:15 -13.03814 90.04499 30891 ft 522 kts 131°
2026-04-17 02:15 -13.08467 90.10197 30904 ft 520 kts 130°
2026-04-17 02:16 -13.13109 90.15886 30900 ft 519 kts 131°
2026-04-17 02:16 -13.17771 90.21564 30898 ft 521 kts 131°
2026-04-17 02:17 -13.22459 90.27260 30903 ft 523 kts 131°
2026-04-17 02:17 -13.26364 90.32004 30906 ft 524 kts 131°
2026-04-17 02:18 -13.31060 90.37718 30902 ft 523 kts 131°
2026-04-17 02:18 -13.35744 90.43422 30899 ft 522 kts 131°
2026-04-17 02:19 -13.40420 90.49120 30912 ft 521 kts 131°
2026-04-17 02:19 -13.45082 90.54804 30905 ft 520 kts 131°
2026-04-17 02:20 -13.49732 90.60477 30906 ft 519 kts 131°
2026-04-17 02:20 -13.54405 90.66182 30917 ft 522 kts 130°
2026-04-17 02:21 -13.59101 90.71919 30914 ft 527 kts 131°
2026-04-17 02:21 -13.63825 90.77694 30916 ft 528 kts 131°
2026-04-17 02:22 -13.68542 90.83466 30911 ft 527 kts 131°
2026-04-17 02:22 -13.73249 90.89228 30915 ft 525 kts 131°
2026-04-17 02:23 -13.77944 90.94980 30916 ft 525 kts 131°
2026-04-17 02:23 -13.82633 91.00729 30922 ft 525 kts 131°
2026-04-17 02:24 -13.87322 91.06480 30923 ft 524 kts 131°
2026-04-17 02:24 -13.91979 91.12197 30932 ft 526 kts 130°
2026-04-17 02:25 -13.96687 91.17980 30937 ft 528 kts 130°
2026-04-17 02:25 -14.01409 91.23784 30932 ft 529 kts 130°
2026-04-17 02:26 -14.06127 91.29589 30932 ft 527 kts 130°
2026-04-17 02:26 -14.10821 91.35368 30924 ft 525 kts 130°
2026-04-17 02:27 -14.15499 91.41132 30924 ft 525 kts 131°
2026-04-17 02:27 -14.20187 91.46910 30930 ft 527 kts 130°
2026-04-17 02:28 -14.24892 91.52713 30947 ft 528 kts 130°
2026-04-17 02:28 -14.29607 91.58534 30937 ft 529 kts 131°
2026-04-17 02:29 -14.34330 91.64370 30934 ft 531 kts 131°
2026-04-17 02:29 -14.39060 91.70218 30945 ft 531 kts 131°
2026-04-17 02:30 -14.43785 91.76064 30940 ft 530 kts 131°
2026-04-17 02:30 -14.48502 91.81905 30939 ft 529 kts 130°
2026-04-17 02:31 -14.53208 91.87734 30945 ft 527 kts 130°
2026-04-17 02:31 -14.57899 91.93552 30941 ft 527 kts 131°
2026-04-17 02:32 -14.62592 91.99374 30954 ft 527 kts 130°
2026-04-17 02:32 -14.67278 92.05194 30956 ft 527 kts 131°
2026-04-17 02:33 -14.71968 92.11021 30949 ft 527 kts 130°
2026-04-17 02:33 -14.76654 92.16848 30949 ft 527 kts 130°
2026-04-17 02:34 -14.81297 92.22628 30951 ft 526 kts 131°
2026-04-17 02:34 -14.85978 92.28458 30956 ft 528 kts 131°
2026-04-17 02:35 -14.90669 92.34303 30963 ft 528 kts 130°
2026-04-17 02:35 -14.97706 92.43083 30960 ft 529 kts 130°
2026-04-17 02:36 -15.02398 92.48942 30956 ft 529 kts 130°
2026-04-17 02:36 -15.07091 92.54807 30963 ft 529 kts 130°
2026-04-17 02:37 -15.11786 92.60678 30959 ft 529 kts 130°
2026-04-17 02:37 -15.16476 92.66549 30960 ft 529 kts 130°
2026-04-17 02:38 -15.21159 92.72414 30964 ft 528 kts 130°
2026-04-17 02:38 -15.25835 92.78276 30962 ft 528 kts 130°
2026-04-17 02:39 -15.30508 92.84138 30966 ft 528 kts 130°
2026-04-17 02:39 -15.35186 92.90010 30968 ft 529 kts 130°
2026-04-17 02:40 -15.39867 92.95891 30970 ft 529 kts 130°
2026-04-17 02:40 -15.44547 93.01777 30968 ft 529 kts 130°
2026-04-17 02:41 -15.49198 93.07629 30971 ft 529 kts 130°
2026-04-17 02:41 -15.53879 93.13525 30972 ft 529 kts 130°
2026-04-17 02:42 -15.58557 93.19421 30974 ft 529 kts 130°
2026-04-17 02:42 -15.63236 93.25322 30983 ft 530 kts 130°
2026-04-17 02:43 -15.67920 93.31235 30975 ft 531 kts 130°
2026-04-17 02:43 -15.72613 93.37163 30977 ft 532 kts 130°
2026-04-17 02:44 -15.77308 93.43100 30978 ft 532 kts 130°
2026-04-17 02:44 -15.82005 93.49043 30979 ft 532 kts 130°
2026-04-17 02:45 -15.86699 93.54989 30982 ft 532 kts 130°
2026-04-17 02:45 -15.91388 93.60932 30983 ft 532 kts 130°
2026-04-17 02:46 -15.96075 93.66877 30982 ft 532 kts 130°
2026-04-17 02:46 -16.00761 93.72826 30982 ft 532 kts 130°
2026-04-17 02:47 -16.05453 93.78787 30988 ft 533 kts 130°
2026-04-17 02:47 -16.10149 93.84758 30988 ft 534 kts 130°
2026-04-17 02:48 -16.14845 93.90735 30993 ft 534 kts 130°
2026-04-17 02:48 -16.19545 93.96722 30992 ft 534 kts 130°
2026-04-17 02:49 -16.24245 94.02714 31003 ft 535 kts 130°
2026-04-17 02:49 -16.28947 94.08713 30989 ft 535 kts 130°
2026-04-17 02:50 -16.33647 94.14714 31001 ft 535 kts 130°
2026-04-17 02:50 -16.38320 94.20686 30997 ft 536 kts 130°
2026-04-17 02:51 -16.43065 94.26756 30997 ft 537 kts 130°
2026-04-17 02:51 -16.47750 94.32752 31001 ft 538 kts 130°
2026-04-17 02:52 -16.52468 94.38798 30999 ft 538 kts 130°
2026-04-17 02:52 -16.57187 94.44850 31001 ft 538 kts 130°
2026-04-17 02:53 -16.61904 94.50905 31003 ft 538 kts 130°
2026-04-17 02:53 -16.66618 94.56960 31007 ft 538 kts 130°
2026-04-17 02:54 -16.71340 94.63030 31007 ft 539 kts 130°
2026-04-17 02:54 -16.76068 94.69115 31008 ft 540 kts 130°
2026-04-17 02:55 -16.80800 94.75210 31008 ft 541 kts 130°
2026-04-17 02:55 -16.85532 94.81310 31014 ft 541 kts 130°
2026-04-17 02:56 -16.90264 94.87417 31013 ft 541 kts 130°
2026-04-17 02:56 -16.94991 94.93522 31012 ft 541 kts 130°
2026-04-17 02:57 -16.99705 94.99635 31027 ft 540 kts 129°
2026-04-17 02:57 -17.03941 95.06133 31025 ft 541 kts 124°
2026-04-17 02:58 -17.08006 95.12767 31036 ft 542 kts 124°
2026-04-17 02:58 -17.12095 95.19419 31008 ft 544 kts 124°
2026-04-17 02:59 -17.16206 95.26056 31018 ft 543 kts 124°
2026-04-17 02:59 -17.20319 95.32675 31019 ft 542 kts 124°
2026-04-17 03:00 -17.24424 95.39289 31027 ft 542 kts 124°
2026-04-17 03:00 -17.28525 95.45906 31030 ft 542 kts 124°
2026-04-17 03:01 -17.32621 95.52526 31039 ft 542 kts 124°
2026-04-17 03:01 -17.36719 95.59155 31029 ft 543 kts 124°
2026-04-17 03:02 -17.40822 95.65798 31027 ft 543 kts 124°
2026-04-17 03:02 -17.44925 95.72448 31029 ft 544 kts 124°
2026-04-17 03:03 -17.49030 95.79106 31030 ft 544 kts 124°
2026-04-17 03:03 -17.53103 95.85721 31035 ft 544 kts 124°
2026-04-17 03:04 -17.56536 95.91302 31035 ft 544 kts 124°
2026-04-17 03:04 -17.61297 95.99048 31035 ft 544 kts 124°
2026-04-17 03:05 -17.65390 96.05713 31056 ft 544 kts 124°
2026-04-17 03:05 -17.68816 96.11299 31045 ft 544 kts 124°
2026-04-17 03:06 -17.72908 96.17976 31038 ft 544 kts 124°
2026-04-17 03:06 -17.76998 96.24657 31038 ft 544 kts 124°
2026-04-17 03:07 -17.81086 96.31340 31044 ft 544 kts 124°
2026-04-17 03:07 -17.85171 96.38028 31044 ft 544 kts 124°
2026-04-17 03:08 -17.89255 96.44718 31047 ft 544 kts 124°
2026-04-17 03:08 -17.93338 96.51415 31047 ft 544 kts 124°
2026-04-17 03:09 -17.97390 96.58066 31048 ft 544 kts 124°
2026-04-17 03:09 -18.01469 96.64769 31049 ft 545 kts 124°
2026-04-17 03:10 -18.05546 96.71476 31053 ft 545 kts 124°
2026-04-17 03:10 -18.09622 96.78189 31052 ft 545 kts 124°
2026-04-17 03:11 -18.13694 96.84902 31052 ft 545 kts 124°
2026-04-17 03:11 -18.17766 96.91621 31049 ft 545 kts 124°
2026-04-17 03:12 -18.21837 96.98347 31049 ft 545 kts 124°
2026-04-17 03:12 -18.25905 97.05073 31055 ft 545 kts 124°
2026-04-17 03:13 -18.29971 97.11805 31068 ft 545 kts 124°
2026-04-17 03:13 -18.34040 97.18546 31058 ft 546 kts 124°
2026-04-17 03:14 -18.38112 97.25302 31057 ft 547 kts 124°
2026-04-17 03:14 -18.42184 97.32063 31058 ft 547 kts 124°
2026-04-17 03:15 -18.46256 97.38833 31061 ft 547 kts 124°
2026-04-17 03:15 -18.50326 97.45606 31065 ft 547 kts 124°
2026-04-17 03:16 -18.54395 97.52385 31063 ft 547 kts 124°
2026-04-17 03:16 -18.58461 97.59166 31065 ft 547 kts 124°
2026-04-17 03:17 -18.62522 97.65946 31075 ft 547 kts 124°
2026-04-17 03:17 -18.66558 97.72692 31067 ft 548 kts 124°
2026-04-17 03:18 -18.70626 97.79497 31072 ft 549 kts 124°
2026-04-17 03:18 -18.74695 97.86313 31067 ft 549 kts 124°
2026-04-17 03:19 -18.78763 97.93134 31068 ft 549 kts 124°
2026-04-17 03:19 -18.82829 97.99960 31069 ft 549 kts 124°
2026-04-17 03:20 -18.86891 98.06785 31071 ft 549 kts 124°
2026-04-17 03:20 -18.90949 98.13612 31072 ft 549 kts 124°
2026-04-17 03:21 -18.95004 98.20442 31088 ft 549 kts 124°
2026-04-17 03:21 -18.99060 98.27279 31067 ft 549 kts 124°
2026-04-17 03:22 -19.03117 98.34127 31077 ft 550 kts 124°
2026-04-17 03:22 -19.07174 98.40982 31083 ft 550 kts 124°
2026-04-17 03:23 -19.11231 98.47845 31078 ft 551 kts 124°
2026-04-17 03:23 -19.15287 98.54713 31080 ft 551 kts 124°
2026-04-17 03:24 -19.19343 98.61590 31085 ft 551 kts 124°
2026-04-17 03:24 -19.23395 98.68467 31085 ft 551 kts 124°
2026-04-17 03:25 -19.27444 98.75349 31079 ft 551 kts 124°
2026-04-17 03:25 -19.31492 98.82236 31085 ft 551 kts 124°
2026-04-17 03:26 -19.35541 98.89130 31082 ft 551 kts 124°
2026-04-17 03:26 -19.39589 98.96032 31081 ft 552 kts 124°
2026-04-17 03:27 -19.43634 99.02937 31085 ft 552 kts 124°
2026-04-17 03:27 -19.47676 99.09845 31082 ft 552 kts 124°
2026-04-17 03:28 -19.51716 99.16757 31081 ft 551 kts 124°
2026-04-17 03:28 -19.55749 99.23666 31082 ft 551 kts 124°
2026-04-17 03:29 -19.59784 99.30585 31097 ft 552 kts 124°
2026-04-17 03:29 -19.63822 99.37516 31092 ft 553 kts 124°
2026-04-17 03:30 -19.67860 99.44458 31089 ft 553 kts 124°
2026-04-17 03:30 -19.71898 99.51405 31092 ft 553 kts 124°
2026-04-17 03:31 -19.75932 99.58357 31091 ft 553 kts 124°
2026-04-17 03:31 -19.79966 99.65315 31092 ft 553 kts 124°
2026-04-17 03:32 -19.83970 99.72230 31096 ft 553 kts 124°
2026-04-17 03:32 -19.87997 99.79194 31105 ft 554 kts 124°
2026-04-17 03:33 -19.92029 99.86172 31096 ft 554 kts 124°
2026-04-17 03:33 -19.96062 99.93162 31098 ft 555 kts 124°
2026-04-17 03:34 -20.00094 100.00160 31096 ft 555 kts 124°
2026-04-17 03:34 -20.03943 100.07290 31095 ft 556 kts 121°
2026-04-17 03:35 -20.07608 100.14539 31098 ft 556 kts 121°
2026-04-17 03:35 -20.11279 100.21786 31100 ft 556 kts 121°
2026-04-17 03:36 -20.16848 100.32613 31117 ft 556 kts 121°
2026-04-17 03:37 -20.20577 100.39837 31100 ft 557 kts 121°
2026-04-17 03:37 -20.24305 100.47076 31104 ft 558 kts 121°
2026-04-17 03:38 -20.28005 100.54279 31099 ft 558 kts 121°
2026-04-17 03:38 -20.31727 100.61535 31096 ft 558 kts 121°
2026-04-17 03:39 -20.35445 100.68793 31107 ft 558 kts 121°
2026-04-17 03:39 -20.39160 100.76052 31100 ft 558 kts 121°
2026-04-17 03:40 -20.42872 100.83317 31101 ft 558 kts 121°
2026-04-17 03:40 -20.46578 100.90578 31122 ft 558 kts 121°
2026-04-17 03:41 -20.50288 100.97856 31113 ft 559 kts 121°
2026-04-17 03:41 -20.54004 101.05153 31108 ft 560 kts 121°
2026-04-17 03:42 -20.57719 101.12462 31103 ft 560 kts 121°
2026-04-17 03:42 -20.61433 101.19776 31103 ft 560 kts 121°
2026-04-17 03:43 -20.65144 101.27096 31108 ft 560 kts 121°
2026-04-17 03:43 -20.68849 101.34412 31105 ft 560 kts 121°
2026-04-17 03:44 -20.72550 101.41731 31104 ft 560 kts 121°
2026-04-17 03:44 -20.76246 101.49048 31127 ft 560 kts 121°
2026-04-17 03:45 -20.79948 101.56387 31105 ft 561 kts 121°
2026-04-17 03:45 -20.83650 101.63735 31102 ft 562 kts 121°
2026-04-17 03:46 -20.87352 101.71095 31103 ft 562 kts 121°
2026-04-17 03:46 -20.91054 101.78465 31106 ft 563 kts 121°
2026-04-17 03:47 -20.94752 101.85836 31125 ft 562 kts 121°
2026-04-17 03:47 -20.98449 101.93215 31105 ft 562 kts 121°
2026-04-17 03:48 -21.02138 102.00590 31107 ft 562 kts 121°
2026-04-17 03:48 -21.05802 102.07921 31119 ft 562 kts 121°
2026-04-17 03:49 -21.09483 102.15298 31115 ft 562 kts 121°
2026-04-17 03:49 -21.13163 102.22684 31101 ft 562 kts 121°
2026-04-17 03:50 -21.16838 102.30069 31101 ft 562 kts 121°
2026-04-17 03:50 -21.20509 102.37456 31101 ft 562 kts 121°
2026-04-17 03:51 -21.24180 102.44853 31104 ft 562 kts 121°
2026-04-17 03:51 -21.27847 102.52252 31116 ft 562 kts 121°
2026-04-17 03:52 -21.31512 102.59659 31127 ft 562 kts 121°
2026-04-17 03:52 -21.34559 102.65824 31112 ft 563 kts 121°
2026-04-17 03:53 -21.38227 102.73253 31110 ft 564 kts 121°
2026-04-17 03:53 -21.41891 102.80686 31109 ft 564 kts 121°
2026-04-17 03:54 -21.45552 102.88124 31115 ft 564 kts 121°
2026-04-17 03:54 -21.49210 102.95566 31111 ft 564 kts 121°
2026-04-17 03:55 -21.52865 103.03013 31114 ft 563 kts 121°
2026-04-17 03:55 -21.56516 103.10459 31114 ft 563 kts 121°
2026-04-17 03:56 -21.60162 103.17909 31132 ft 563 kts 121°
2026-04-17 03:56 -21.63808 103.25368 31117 ft 564 kts 121°
2026-04-17 03:57 -21.67453 103.32834 31117 ft 564 kts 121°
2026-04-17 03:57 -21.71095 103.40306 31114 ft 564 kts 121°
2026-04-17 03:58 -21.74735 103.47785 31115 ft 564 kts 121°
2026-04-17 03:58 -21.78372 103.55268 31114 ft 564 kts 121°
2026-04-17 03:59 -21.82004 103.62754 31114 ft 564 kts 120°
2026-04-17 03:59 -21.85634 103.70244 31114 ft 564 kts 120°
2026-04-17 04:00 -21.89262 103.77742 31126 ft 565 kts 121°
2026-04-17 04:00 -21.92893 103.85254 31121 ft 566 kts 121°
2026-04-17 04:01 -21.96523 103.92779 31121 ft 566 kts 120°
2026-04-17 04:01 -22.00125 104.00256 31117 ft 566 kts 120°
2026-04-17 04:02 -22.03543 104.07910 31117 ft 567 kts 117°
2026-04-17 04:02 -22.06754 104.15681 31117 ft 568 kts 116°
2026-04-17 04:03 -22.09970 104.23452 31114 ft 567 kts 117°
2026-04-17 04:03 -22.13228 104.31193 31118 ft 567 kts 117°
2026-04-17 04:04 -22.16508 104.38934 31121 ft 568 kts 117°
2026-04-17 04:04 -22.19791 104.46691 31119 ft 569 kts 117°
2026-04-17 04:05 -22.23069 104.54464 31117 ft 569 kts 117°
2026-04-17 04:05 -22.26343 104.62247 31117 ft 569 kts 117°
2026-04-17 04:06 -22.29612 104.70032 31117 ft 569 kts 117°
2026-04-17 04:06 -22.32880 104.77823 31118 ft 569 kts 117°
2026-04-17 04:07 -22.36143 104.85615 31114 ft 569 kts 117°
2026-04-17 04:07 -22.39402 104.93411 31105 ft 569 kts 117°
2026-04-17 04:08 -22.42656 105.01209 31125 ft 569 kts 117°
2026-04-17 04:08 -22.45910 105.09017 31112 ft 570 kts 117°
2026-04-17 04:09 -22.49161 105.16830 31118 ft 570 kts 117°
2026-04-17 04:09 -22.52409 105.24649 31117 ft 570 kts 117°
2026-04-17 04:10 -22.55652 105.32472 31115 ft 570 kts 117°
2026-04-17 04:10 -22.58892 105.40296 31117 ft 569 kts 117°
2026-04-17 04:11 -22.61990 105.47792 31114 ft 569 kts 117°
2026-04-17 04:11 -22.65218 105.55614 31114 ft 569 kts 117°
2026-04-17 04:12 -22.68422 105.63391 31117 ft 570 kts 117°
2026-04-17 04:12 -22.71652 105.71242 31115 ft 571 kts 117°
2026-04-17 04:13 -22.74879 105.79101 31115 ft 571 kts 117°
2026-04-17 04:13 -22.78102 105.86963 31113 ft 571 kts 117°
2026-04-17 04:14 -22.81324 105.94835 31114 ft 571 kts 117°
2026-04-17 04:14 -22.84540 106.02709 31109 ft 571 kts 116°
2026-04-17 04:15 -22.87748 106.10573 31108 ft 570 kts 116°
2026-04-17 04:15 -22.90950 106.18437 31149 ft 570 kts 117°
2026-04-17 04:16 -22.94173 106.26359 31527 ft 576 kts 117°
2026-04-17 04:16 -22.95789 106.30340 31923 ft 576 kts 116°
2026-04-17 04:16 -22.97399 106.34309 32335 ft 575 kts 116°
2026-04-17 04:16 -22.99008 106.38281 32751 ft 574 kts 116°
2026-04-17 04:17 -23.00613 106.42246 33154 ft 574 kts 116°
2026-04-17 04:17 -23.02219 106.46215 33501 ft 575 kts 116°
2026-04-17 04:17 -23.03828 106.50194 33827 ft 576 kts 116°
2026-04-17 04:17 -23.05439 106.54181 34158 ft 577 kts 116°
2026-04-17 04:18 -23.07049 106.58171 34461 ft 577 kts 116°
2026-04-17 04:18 -23.08638 106.62112 34758 ft 577 kts 116°
2026-04-17 04:18 -23.10246 106.66103 35037 ft 578 kts 116°
2026-04-17 04:19 -23.13475 106.74126 35102 ft 579 kts 116°
2026-04-17 04:19 -23.16689 106.82131 35127 ft 577 kts 116°
2026-04-17 04:20 -23.19898 106.90134 35113 ft 578 kts 116°
2026-04-17 04:20 -23.23105 106.98144 35115 ft 578 kts 116°
2026-04-17 04:21 -23.26308 107.06161 35100 ft 578 kts 116°
2026-04-17 04:21 -23.29509 107.14186 35110 ft 578 kts 116°
2026-04-17 04:22 -23.32702 107.22206 35110 ft 578 kts 116°
2026-04-17 04:22 -23.35895 107.30237 35109 ft 578 kts 116°
2026-04-17 04:23 -23.39081 107.38268 35104 ft 578 kts 116°
2026-04-17 04:23 -23.42268 107.46315 35108 ft 579 kts 116°
2026-04-17 04:24 -23.45455 107.54373 35108 ft 580 kts 116°
2026-04-17 04:24 -23.48641 107.62446 35106 ft 580 kts 116°
2026-04-17 04:25 -23.51819 107.70514 35109 ft 581 kts 116°
2026-04-17 04:25 -23.55000 107.78602 35103 ft 581 kts 116°
2026-04-17 04:26 -23.58177 107.86697 35106 ft 581 kts 116°
2026-04-17 04:26 -23.61350 107.94793 35106 ft 581 kts 116°
2026-04-17 04:27 -23.64517 108.02891 35103 ft 580 kts 116°
2026-04-17 04:27 -23.67680 108.10991 35103 ft 580 kts 116°
2026-04-17 04:28 -23.70837 108.19092 35103 ft 580 kts 116°
2026-04-17 04:28 -23.73989 108.27195 35103 ft 580 kts 116°
2026-04-17 04:29 -23.77136 108.35300 35102 ft 580 kts 116°
2026-04-17 04:29 -23.80256 108.43351 35101 ft 580 kts 116°
2026-04-17 04:30 -23.83397 108.51469 35102 ft 580 kts 116°
2026-04-17 04:30 -23.86538 108.59601 35125 ft 582 kts 116°
2026-04-17 04:31 -23.89683 108.67759 35108 ft 584 kts 116°
2026-04-17 04:31 -23.92834 108.75948 35104 ft 585 kts 116°
2026-04-17 04:32 -23.95983 108.84151 35095 ft 585 kts 115°
2026-04-17 04:32 -23.99131 108.92363 35099 ft 586 kts 115°
2026-04-17 04:33 -24.02274 109.00579 35101 ft 586 kts 115°
2026-04-17 04:33 -24.05414 109.08801 35096 ft 586 kts 115°
2026-04-17 04:34 -24.10112 109.21135 35113 ft 586 kts 115°
2026-04-17 04:34 -24.13243 109.29371 35097 ft 586 kts 115°
2026-04-17 04:35 -24.16370 109.37615 35094 ft 586 kts 115°
2026-04-17 04:35 -24.19495 109.45867 35092 ft 587 kts 115°
2026-04-17 04:36 -24.22614 109.54123 35091 ft 586 kts 115°
2026-04-17 04:36 -24.25730 109.62383 35095 ft 586 kts 115°
2026-04-17 04:37 -24.28841 109.70647 35089 ft 586 kts 115°
2026-04-17 04:37 -24.31925 109.78857 35114 ft 587 kts 115°
2026-04-17 04:38 -24.35031 109.87139 35095 ft 587 kts 115°
2026-04-17 04:38 -24.38134 109.95430 35087 ft 588 kts 115°
2026-04-17 04:39 -24.41235 110.03730 35087 ft 588 kts 115°
2026-04-17 04:39 -24.44332 110.12038 35088 ft 588 kts 115°
2026-04-17 04:40 -24.47425 110.20351 35083 ft 588 kts 115°
2026-04-17 04:40 -24.49993 110.27264 35088 ft 588 kts 115°
2026-04-17 04:41 -24.53078 110.35587 35122 ft 589 kts 115°
2026-04-17 04:41 -24.56164 110.43925 35095 ft 590 kts 115°
2026-04-17 04:42 -24.59251 110.52283 35083 ft 590 kts 115°
2026-04-17 04:42 -24.62332 110.60644 35081 ft 590 kts 115°
2026-04-17 04:43 -24.65409 110.69010 35084 ft 590 kts 115°
2026-04-17 04:43 -24.68482 110.77382 35084 ft 590 kts 115°
2026-04-17 04:44 -24.71529 110.85698 35071 ft 590 kts 115°
2026-04-17 04:44 -24.74589 110.94069 35110 ft 590 kts 115°
2026-04-17 04:45 -24.77649 111.02455 35080 ft 591 kts 115°
2026-04-17 04:45 -24.80705 111.10848 35079 ft 591 kts 115°
2026-04-17 04:46 -24.83757 111.19245 35076 ft 591 kts 115°
2026-04-17 04:46 -24.86803 111.27646 35078 ft 591 kts 115°
2026-04-17 04:47 -24.89846 111.36052 35073 ft 591 kts 114°
2026-04-17 04:47 -24.92885 111.44464 35074 ft 591 kts 114°
2026-04-17 04:48 -24.95918 111.52880 35098 ft 591 kts 114°
2026-04-17 04:48 -24.98950 111.61309 35072 ft 592 kts 114°
2026-04-17 04:49 -25.01979 111.69748 35070 ft 592 kts 114°
2026-04-17 04:49 -25.05004 111.78191 35071 ft 592 kts 114°
2026-04-17 04:50 -25.08023 111.86637 35070 ft 592 kts 114°
2026-04-17 04:50 -25.11036 111.95084 35072 ft 592 kts 114°
2026-04-17 04:51 -25.14044 112.03532 35067 ft 591 kts 114°
2026-04-17 04:51 -25.17047 112.11986 35069 ft 592 kts 114°
2026-04-17 04:52 -25.20048 112.20452 35061 ft 592 kts 114°
2026-04-17 04:52 -25.23042 112.28916 35067 ft 592 kts 114°
2026-04-17 04:53 -25.26031 112.37384 35065 ft 592 kts 114°
2026-04-17 04:55 -25.40451 112.69743 35065 ft 588 kts 122°
2026-04-17 04:55 -25.44285 112.77733 35061 ft 588 kts 122°
2026-04-17 04:56 -25.48095 112.85737 35057 ft 588 kts 122°
2026-04-17 04:56 -25.51901 112.93740 35056 ft 587 kts 122°
2026-04-17 04:57 -25.55705 113.01743 35052 ft 587 kts 122°
2026-04-17 04:57 -25.59506 113.09747 35061 ft 587 kts 122°
2026-04-17 04:58 -25.63298 113.17747 35044 ft 586 kts 122°
2026-04-17 04:58 -25.67080 113.25742 35046 ft 585 kts 122°
2026-04-17 04:59 -25.70856 113.33738 35046 ft 585 kts 122°
2026-04-17 04:59 -25.74624 113.41732 35044 ft 585 kts 122°
2026-04-17 05:00 -25.78388 113.49732 35035 ft 585 kts 122°
2026-04-17 05:00 -25.82152 113.57744 35043 ft 586 kts 122°
2026-04-17 05:01 -25.85915 113.65771 35035 ft 586 kts 121°
2026-04-17 05:01 -25.89678 113.73812 35038 ft 587 kts 121°
2026-04-17 05:02 -25.93442 113.81868 35029 ft 588 kts 121°
2026-04-17 05:02 -25.97201 113.89932 35027 ft 588 kts 121°
2026-04-17 05:03 -26.00933 113.97951 35040 ft 588 kts 121°
2026-04-17 05:03 -26.04683 114.06022 35031 ft 587 kts 121°
2026-04-17 05:04 -26.08419 114.14081 35018 ft 586 kts 121°
2026-04-17 05:04 -26.12146 114.22132 35025 ft 585 kts 121°
2026-04-17 05:05 -26.15867 114.30185 35030 ft 585 kts 121°
2026-04-17 05:05 -26.19583 114.38241 35056 ft 585 kts 121°
2026-04-17 05:06 -26.23297 114.46308 35025 ft 585 kts 121°
2026-04-17 05:06 -26.27001 114.54372 35014 ft 584 kts 121°
2026-04-17 05:07 -26.30695 114.62426 35016 ft 583 kts 121°
2026-04-17 05:07 -26.34382 114.70480 35014 ft 583 kts 121°
2026-04-17 05:08 -26.38060 114.78530 35016 ft 583 kts 121°
2026-04-17 05:08 -26.41733 114.86582 35011 ft 582 kts 121°
2026-04-17 05:09 -26.45398 114.94634 35012 ft 581 kts 121°
2026-04-17 05:09 -26.49053 115.02678 34994 ft 581 kts 121°
2026-04-17 05:10 -26.52701 115.10722 35005 ft 580 kts 121°
2026-04-17 05:10 -26.56343 115.18768 35007 ft 581 kts 121°
2026-04-17 05:11 -26.59986 115.26829 35044 ft 581 kts 120°
2026-04-17 05:11 -26.63623 115.34894 34997 ft 581 kts 120°
2026-04-17 05:12 -26.67249 115.42951 34997 ft 580 kts 120°
2026-04-17 05:12 -26.70866 115.51001 34999 ft 579 kts 120°
2026-04-17 05:13 -26.74473 115.59046 35000 ft 579 kts 120°
2026-04-17 05:13 -26.78077 115.67096 34983 ft 579 kts 120°
2026-04-17 05:14 -26.81676 115.75152 35003 ft 579 kts 120°
2026-04-17 05:14 -26.85269 115.83210 34998 ft 578 kts 120°
2026-04-17 05:15 -26.88854 115.91266 34992 ft 578 kts 120°
2026-04-17 05:15 -26.92406 115.99265 34989 ft 577 kts 120°
2026-04-17 05:16 -26.95979 116.07323 34996 ft 577 kts 120°
2026-04-17 05:16 -26.99548 116.15388 34998 ft 577 kts 120°
2026-04-17 05:17 -27.03110 116.23454 34990 ft 577 kts 120°
2026-04-17 05:17 -27.06665 116.31520 34988 ft 576 kts 120°
2026-04-17 05:18 -27.10212 116.39582 34992 ft 576 kts 120°
2026-04-17 05:18 -27.13754 116.47648 34991 ft 576 kts 120°
2026-04-17 05:19 -27.17292 116.55721 35013 ft 576 kts 119°
2026-04-17 05:19 -27.20826 116.63801 34991 ft 576 kts 119°
2026-04-17 05:20 -27.24351 116.71876 34992 ft 575 kts 119°
2026-04-17 05:20 -27.27868 116.79948 34989 ft 575 kts 119°
2026-04-17 05:21 -27.31378 116.88020 34989 ft 574 kts 119°
2026-04-17 05:21 -27.34883 116.96095 35020 ft 574 kts 119°
2026-04-17 05:22 -27.38357 117.04115 34992 ft 574 kts 119°
2026-04-17 05:22 -27.41845 117.12185 34987 ft 573 kts 119°
2026-04-17 05:23 -27.45324 117.20250 34974 ft 572 kts 119°
2026-04-17 05:23 -27.48796 117.28313 34982 ft 572 kts 119°
2026-04-17 05:24 -27.52265 117.36384 35020 ft 573 kts 119°
2026-04-17 05:24 -27.55732 117.44466 34985 ft 573 kts 119°
2026-04-17 05:25 -27.59192 117.52549 34967 ft 572 kts 119°
2026-04-17 05:25 -27.62640 117.60623 34974 ft 571 kts 119°
2026-04-17 05:26 -27.66080 117.68690 34971 ft 571 kts 119°
2026-04-17 05:26 -27.69515 117.76762 34975 ft 571 kts 118°
2026-04-17 05:27 -27.72946 117.84841 34969 ft 571 kts 118°
2026-04-17 05:27 -27.76376 117.92935 34966 ft 571 kts 118°
2026-04-17 05:28 -27.79803 118.01035 34967 ft 572 kts 118°
2026-04-17 05:28 -27.83225 118.09144 34956 ft 572 kts 118°
2026-04-17 05:29 -27.86070 118.15896 34963 ft 572 kts 118°
2026-04-17 05:29 -27.89488 118.24024 34977 ft 573 kts 118°
2026-04-17 05:30 -27.92900 118.32155 34961 ft 572 kts 118°
2026-04-17 05:30 -27.96305 118.40286 34948 ft 572 kts 118°
2026-04-17 05:31 -27.99540 118.48503 34959 ft 573 kts 113°
2026-04-17 05:31 -28.02281 118.56970 34958 ft 573 kts 112°
2026-04-17 05:32 -28.04967 118.65468 34973 ft 574 kts 112°
2026-04-17 05:32 -28.07683 118.73969 34947 ft 574 kts 112°
2026-04-17 05:33 -28.10418 118.82456 34944 ft 574 kts 112°
2026-04-17 05:33 -28.13154 118.90944 34943 ft 574 kts 112°
2026-04-17 05:34 -28.15879 118.99433 34945 ft 573 kts 112°
2026-04-17 05:34 -28.18599 119.07935 34943 ft 574 kts 112°
2026-04-17 05:35 -28.21314 119.16442 34933 ft 574 kts 112°
2026-04-17 05:35 -28.24024 119.24956 34930 ft 574 kts 112°
2026-04-17 05:36 -28.26727 119.33467 34930 ft 573 kts 112°
2026-04-17 05:36 -28.29406 119.41921 34930 ft 573 kts 112°
2026-04-17 05:37 -28.32098 119.50438 34926 ft 574 kts 112°
2026-04-17 05:37 -28.34788 119.58969 34944 ft 574 kts 112°
2026-04-17 05:38 -28.37471 119.67503 34926 ft 574 kts 112°
2026-04-17 05:38 -28.40150 119.76044 34924 ft 574 kts 112°
2026-04-17 05:39 -28.42822 119.84582 34907 ft 573 kts 112°
2026-04-17 05:39 -28.45486 119.93116 34919 ft 573 kts 112°
2026-04-17 05:40 -28.48146 120.01659 34923 ft 573 kts 112°
2026-04-17 05:40 -28.50803 120.10213 34918 ft 574 kts 112°
2026-04-17 05:41 -28.53454 120.18770 34909 ft 573 kts 112°
2026-04-17 05:41 -28.56096 120.27323 34918 ft 573 kts 112°
2026-04-17 05:42 -28.58732 120.35875 34911 ft 573 kts 112°
2026-04-17 05:42 -28.61362 120.44427 34904 ft 573 kts 112°
2026-04-17 05:43 -28.63988 120.52992 34924 ft 574 kts 112°
2026-04-17 05:43 -28.66612 120.61569 34912 ft 574 kts 112°
2026-04-17 05:44 -28.69232 120.70156 34910 ft 574 kts 112°
2026-04-17 05:44 -28.71846 120.78747 34907 ft 574 kts 112°
2026-04-17 05:45 -28.74454 120.87338 34908 ft 574 kts 112°
2026-04-17 05:45 -28.77056 120.95935 34927 ft 573 kts 112°
2026-04-17 05:46 -28.79654 121.04535 34905 ft 574 kts 112°
2026-04-17 05:46 -28.82243 121.13133 34906 ft 573 kts 112°
2026-04-17 05:47 -28.84827 121.21735 34909 ft 573 kts 112°
2026-04-17 05:47 -28.87403 121.30335 34894 ft 573 kts 112°
2026-04-17 05:48 -28.90117 121.38865 34930 ft 571 kts 115°
2026-04-17 05:48 -28.93110 121.47248 34904 ft 570 kts 116°
2026-04-17 05:49 -28.96117 121.55610 34890 ft 569 kts 116°
2026-04-17 05:49 -28.99056 121.63986 34902 ft 568 kts 115°
2026-04-17 05:50 -29.01958 121.72383 34908 ft 568 kts 115°
2026-04-17 05:50 -29.04830 121.80727 34926 ft 568 kts 115°
2026-04-17 05:51 -29.07723 121.89133 34911 ft 568 kts 115°
2026-04-17 05:51 -29.10612 121.97537 34907 ft 568 kts 115°
2026-04-17 05:52 -29.13493 122.05939 34909 ft 567 kts 115°
2026-04-17 05:52 -29.16367 122.14337 34910 ft 567 kts 115°
2026-04-17 05:53 -29.19236 122.22744 34915 ft 567 kts 115°
2026-04-17 05:53 -29.22101 122.31156 34922 ft 567 kts 115°
2026-04-17 05:54 -29.24963 122.39582 34913 ft 568 kts 115°
2026-04-17 05:54 -29.27823 122.48023 34928 ft 569 kts 115°
2026-04-17 05:55 -29.30684 122.56487 34929 ft 570 kts 115°
2026-04-17 05:55 -29.33542 122.64963 34935 ft 570 kts 115°
2026-04-17 05:56 -29.36394 122.73444 34935 ft 570 kts 114°
2026-04-17 05:56 -29.39237 122.81919 34936 ft 569 kts 114°
2026-04-17 05:57 -29.42072 122.90387 34925 ft 568 kts 114°
2026-04-17 05:57 -29.44900 122.98853 34938 ft 568 kts 114°
2026-04-17 05:58 -29.47720 123.07321 34952 ft 568 kts 114°
2026-04-17 05:59 -29.51933 123.20009 34943 ft 566 kts 114°
2026-04-17 05:59 -29.54731 123.28460 34951 ft 566 kts 114°
2026-04-17 06:00 -29.57524 123.36913 34946 ft 566 kts 114°
2026-04-17 06:00 -29.60311 123.45374 34949 ft 566 kts 114°
2026-04-17 06:01 -29.63086 123.53820 34956 ft 564 kts 113°
2026-04-17 06:01 -29.65850 123.62252 34948 ft 563 kts 113°
2026-04-17 06:02 -29.68603 123.70673 34954 ft 562 kts 113°
2026-04-17 06:02 -29.71332 123.79036 34973 ft 563 kts 113°
2026-04-17 06:03 -29.74072 123.87460 34959 ft 562 kts 113°
2026-04-17 06:03 -29.76803 123.95874 34958 ft 561 kts 113°
2026-04-17 06:04 -29.79530 124.04295 34956 ft 562 kts 113°
2026-04-17 06:04 -29.82254 124.12729 34958 ft 562 kts 113°
2026-04-17 06:05 -29.84977 124.21180 34976 ft 563 kts 112°
2026-04-17 06:05 -29.87695 124.29641 34959 ft 563 kts 112°
2026-04-17 06:06 -29.90408 124.38107 34958 ft 563 kts 112°
2026-04-17 06:06 -29.93113 124.46568 34958 ft 563 kts 112°
2026-04-17 06:07 -29.95815 124.55041 34952 ft 563 kts 112°
2026-04-17 06:07 -29.98512 124.63520 34970 ft 563 kts 112°
2026-04-17 06:08 -30.01202 124.71999 34959 ft 562 kts 112°
2026-04-17 06:08 -30.03880 124.80465 34954 ft 561 kts 111°
2026-04-17 06:09 -30.06552 124.88928 34962 ft 561 kts 111°
2026-04-17 06:09 -30.09217 124.97392 34983 ft 560 kts 111°
2026-04-17 06:10 -30.11856 125.05796 34958 ft 560 kts 111°
2026-04-17 06:10 -30.14505 125.14255 34967 ft 560 kts 111°
2026-04-17 06:11 -30.17148 125.22716 34965 ft 560 kts 111°
2026-04-17 06:11 -30.19791 125.31197 34967 ft 562 kts 111°
2026-04-17 06:12 -30.22437 125.39709 34981 ft 563 kts 111°
2026-04-17 06:12 -30.25078 125.48231 34974 ft 563 kts 111°
2026-04-17 06:13 -30.27714 125.56758 34967 ft 563 kts 111°
2026-04-17 06:13 -30.30347 125.65298 34978 ft 564 kts 111°
2026-04-17 06:14 -30.32978 125.73852 34993 ft 564 kts 110°
2026-04-17 06:14 -30.35597 125.82394 34962 ft 562 kts 110°
2026-04-17 06:15 -30.38206 125.90922 34979 ft 562 kts 110°
2026-04-17 06:15 -30.40369 125.98011 34979 ft 562 kts 110°
2026-04-17 06:16 -30.42970 126.06554 34977 ft 562 kts 110°
2026-04-17 06:16 -30.45565 126.15103 34979 ft 563 kts 110°
2026-04-17 06:17 -30.48159 126.23670 34976 ft 563 kts 110°
2026-04-17 06:17 -30.50752 126.32256 34967 ft 565 kts 110°
2026-04-17 06:18 -30.53345 126.40868 34980 ft 567 kts 110°
2026-04-17 06:18 -30.55941 126.49511 34979 ft 567 kts 110°
2026-04-17 06:19 -30.58528 126.58151 34969 ft 567 kts 110°
2026-04-17 06:19 -30.61112 126.66800 34979 ft 567 kts 110°
2026-04-17 06:20 -30.63688 126.75447 34968 ft 567 kts 110°
2026-04-17 06:20 -30.66262 126.84112 34986 ft 567 kts 110°
2026-04-17 06:21 -30.68826 126.92771 34976 ft 567 kts 110°
2026-04-17 06:21 -30.71385 127.01432 34966 ft 566 kts 110°
2026-04-17 06:22 -30.73936 127.10092 34984 ft 567 kts 109°
2026-04-17 06:22 -30.76486 127.18773 35000 ft 567 kts 109°
2026-04-17 06:23 -30.79028 127.27452 34969 ft 566 kts 109°
2026-04-17 06:23 -30.81558 127.36113 34978 ft 565 kts 109°
2026-04-17 06:24 -30.84082 127.44777 34988 ft 565 kts 109°
2026-04-17 06:24 -30.86599 127.53441 34999 ft 565 kts 109°
2026-04-17 06:25 -30.89110 127.62111 34990 ft 565 kts 109°
2026-04-17 06:25 -30.91611 127.70771 34986 ft 564 kts 109°
2026-04-17 06:26 -30.94109 127.79442 34983 ft 565 kts 109°
2026-04-17 06:26 -30.96602 127.88125 35012 ft 566 kts 109°
2026-04-17 06:27 -30.99093 127.96822 34982 ft 566 kts 109°
2026-04-17 06:27 -31.01333 128.05605 34990 ft 566 kts 104°
2026-04-17 06:28 -31.03269 128.14497 34995 ft 566 kts 104°
2026-04-17 06:28 -31.05175 128.23400 34986 ft 567 kts 104°
2026-04-17 06:29 -31.07109 128.32317 34997 ft 567 kts 104°
2026-04-17 06:29 -31.09055 128.41221 34994 ft 566 kts 104°
2026-04-17 06:30 -31.10996 128.50121 35003 ft 565 kts 104°
2026-04-17 06:30 -31.12911 128.58946 35003 ft 565 kts 104°
2026-04-17 06:31 -31.14831 128.67829 35008 ft 564 kts 104°
2026-04-17 06:31 -31.16740 128.76701 35001 ft 563 kts 104°
2026-04-17 06:32 -31.18641 128.85561 35009 ft 562 kts 104°
2026-04-17 06:32 -31.20538 128.94436 35007 ft 566 kts 104°
2026-04-17 06:33 -31.22447 129.03400 35046 ft 569 kts 103°
2026-04-17 06:33 -31.24334 129.12293 35008 ft 560 kts 103°
2026-04-17 06:34 -31.26212 129.21179 35020 ft 567 kts 103°
2026-04-17 06:34 -31.28106 129.30169 35030 ft 570 kts 103°
2026-04-17 06:35 -31.29997 129.39181 35034 ft 571 kts 103°
2026-04-17 06:35 -31.31883 129.48198 35031 ft 571 kts 103°
2026-04-17 06:36 -31.33757 129.57201 35028 ft 569 kts 103°
2026-04-17 06:36 -31.35621 129.66183 35026 ft 568 kts 103°
2026-04-17 06:37 -31.37480 129.75175 35038 ft 568 kts 103°
2026-04-17 06:37 -31.39335 129.84180 35027 ft 570 kts 103°
2026-04-17 06:38 -31.41187 129.93208 35045 ft 572 kts 103°
2026-04-17 06:38 -31.43029 130.02218 35045 ft 574 kts 103°
2026-04-17 06:39 -31.44895 130.11386 35039 ft 576 kts 103°
2026-04-17 06:39 -31.46746 130.20512 35049 ft 576 kts 103°
2026-04-17 06:40 -31.48590 130.29639 35034 ft 576 kts 103°
2026-04-17 06:40 -31.50415 130.38707 35049 ft 575 kts 103°
2026-04-17 06:41 -31.52244 130.47831 35045 ft 576 kts 103°
2026-04-17 06:41 -31.54067 130.56963 35065 ft 576 kts 103°
2026-04-17 06:42 -31.55885 130.66105 35055 ft 575 kts 103°
2026-04-17 06:42 -31.57696 130.75245 35062 ft 575 kts 103°
2026-04-17 06:43 -31.59497 130.84375 35060 ft 575 kts 103°
2026-04-17 06:43 -31.61291 130.93502 35051 ft 573 kts 102°
2026-04-17 06:44 -31.63073 131.02606 35059 ft 572 kts 102°
2026-04-17 06:44 -31.64847 131.11709 35061 ft 572 kts 102°
2026-04-17 06:45 -31.66618 131.20831 35065 ft 576 kts 102°
2026-04-17 06:45 -31.68392 131.30008 35063 ft 575 kts 102°
2026-04-17 06:46 -31.70151 131.39140 35050 ft 573 kts 102°
2026-04-17 06:46 -31.71901 131.48261 35066 ft 572 kts 102°
2026-04-17 06:47 -31.73642 131.57378 35083 ft 573 kts 102°
2026-04-17 06:47 -31.75372 131.66472 35070 ft 575 kts 102°
2026-04-17 06:48 -31.77108 131.75637 35073 ft 575 kts 102°
2026-04-17 06:48 -31.78842 131.84823 35069 ft 576 kts 102°
2026-04-17 06:49 -31.80569 131.94023 35105 ft 577 kts 102°
2026-04-17 06:49 -31.82294 132.03238 35070 ft 577 kts 102°
2026-04-17 06:50 -31.84010 132.12448 35075 ft 577 kts 102°
2026-04-17 06:50 -31.85720 132.21668 35072 ft 577 kts 102°
2026-04-17 06:51 -31.87423 132.30889 35104 ft 577 kts 102°
2026-04-17 06:51 -31.89121 132.40120 35081 ft 577 kts 102°
2026-04-17 06:52 -31.90810 132.49345 35089 ft 577 kts 102°
2026-04-17 06:52 -31.92495 132.58584 35091 ft 577 kts 102°
2026-04-17 06:53 -31.94172 132.67823 35095 ft 577 kts 102°
2026-04-17 06:53 -31.95844 132.77072 35086 ft 577 kts 102°
2026-04-17 06:54 -31.97506 132.86309 35095 ft 577 kts 101°
2026-04-17 06:54 -31.99162 132.95552 35112 ft 576 kts 101°
2026-04-17 06:55 -32.00809 133.04785 35086 ft 575 kts 101°
2026-04-17 06:55 -32.02446 133.14000 35097 ft 574 kts 101°
2026-04-17 06:56 -32.04076 133.23218 35086 ft 574 kts 101°
2026-04-17 06:56 -32.05700 133.32444 35096 ft 576 kts 101°
2026-04-17 06:57 -32.07322 133.41700 35109 ft 577 kts 101°
2026-04-17 06:57 -32.08941 133.50981 35098 ft 579 kts 101°
2026-04-17 06:58 -32.10559 133.60302 35105 ft 581 kts 101°
2026-04-17 06:58 -32.12163 133.69577 35097 ft 582 kts 101°
2026-04-17 06:59 -32.14186 133.78813 35107 ft 581 kts 108°
2026-04-17 06:59 -32.16628 133.87903 35086 ft 581 kts 108°
2026-04-17 07:00 -32.19078 133.97001 35107 ft 581 kts 108°
2026-04-17 07:00 -32.21472 134.06102 35082 ft 580 kts 108°
2026-04-17 07:01 -32.23838 134.15215 35098 ft 580 kts 108°
2026-04-17 07:01 -32.26194 134.24323 35094 ft 580 kts 108°
2026-04-17 07:02 -32.28549 134.33439 35104 ft 579 kts 108°
2026-04-17 07:02 -32.30501 134.41014 35105 ft 579 kts 108°
2026-04-17 07:03 -32.32844 134.50131 35117 ft 580 kts 108°
2026-04-17 07:03 -32.35180 134.59252 35109 ft 579 kts 108°
2026-04-17 07:04 -32.37509 134.68376 35101 ft 580 kts 107°
2026-04-17 07:04 -32.39831 134.77503 35127 ft 579 kts 107°
2026-04-17 07:05 -32.42146 134.86633 35121 ft 579 kts 107°
2026-04-17 07:05 -32.44451 134.95757 35113 ft 578 kts 107°
2026-04-17 07:06 -32.46746 135.04871 35109 ft 578 kts 107°
2026-04-17 07:06 -32.49037 135.13996 35117 ft 578 kts 107°
2026-04-17 07:07 -32.51323 135.23134 35119 ft 579 kts 107°
2026-04-17 07:07 -32.53606 135.32291 35124 ft 580 kts 107°
2026-04-17 07:08 -32.55883 135.41460 35140 ft 580 kts 107°
2026-04-17 07:08 -32.58157 135.50645 35127 ft 581 kts 107°
2026-04-17 07:09 -32.60424 135.59837 35140 ft 580 kts 107°
2026-04-17 07:09 -32.62682 135.69022 35135 ft 580 kts 107°
2026-04-17 07:10 -32.64930 135.78200 35141 ft 579 kts 107°
2026-04-17 07:10 -32.67156 135.87385 35128 ft 579 kts 107°
2026-04-17 07:11 -32.69370 135.96573 35132 ft 579 kts 107°
2026-04-17 07:11 -32.71582 136.05775 35138 ft 580 kts 107°
2026-04-17 07:12 -32.73793 136.14999 35120 ft 581 kts 107°
2026-04-17 07:12 -32.75998 136.24231 35136 ft 581 kts 107°
2026-04-17 07:13 -32.78185 136.33418 35142 ft 582 kts 107°
2026-04-17 07:13 -32.80380 136.42675 35148 ft 582 kts 107°
2026-04-17 07:14 -32.82568 136.51933 35146 ft 582 kts 107°
2026-04-17 07:14 -32.84748 136.61192 35159 ft 581 kts 107°
2026-04-17 07:15 -32.86919 136.70447 35155 ft 581 kts 107°
2026-04-17 07:15 -32.89083 136.79704 35168 ft 580 kts 107°
2026-04-17 07:16 -32.91238 136.88957 35135 ft 580 kts 107°
2026-04-17 07:16 -32.93387 136.98217 35169 ft 581 kts 107°
2026-04-17 07:17 -32.95532 137.07498 35165 ft 581 kts 107°
2026-04-17 07:17 -32.98739 137.21432 35159 ft 582 kts 107°
2026-04-17 07:18 -33.00871 137.30740 35169 ft 582 kts 106°
2026-04-17 07:18 -33.02996 137.40053 35177 ft 582 kts 106°
2026-04-17 07:19 -33.05113 137.49363 35168 ft 582 kts 106°
2026-04-17 07:19 -33.07105 137.58650 35163 ft 582 kts 103°
2026-04-17 07:20 -33.08782 137.68093 35170 ft 582 kts 102°
2026-04-17 07:20 -33.10406 137.77544 35162 ft 582 kts 103°
2026-04-17 07:21 -33.12083 137.86978 35147 ft 582 kts 103°
2026-04-17 07:21 -33.13790 137.96419 35160 ft 583 kts 103°
2026-04-17 07:22 -33.15497 138.05881 35166 ft 584 kts 103°
2026-04-17 07:22 -33.17193 138.15363 35171 ft 585 kts 103°
2026-04-17 07:23 -33.18882 138.24870 35171 ft 586 kts 103°
2026-04-17 07:23 -33.20562 138.34377 35164 ft 585 kts 103°
2026-04-17 07:24 -33.22236 138.43884 35167 ft 585 kts 103°
2026-04-17 07:24 -33.23900 138.53382 35162 ft 584 kts 103°
2026-04-17 07:25 -33.25553 138.62859 35164 ft 582 kts 103°
2026-04-17 07:25 -33.27196 138.72324 35143 ft 582 kts 103°
2026-04-17 07:26 -33.28831 138.81782 35156 ft 581 kts 103°
2026-04-17 07:26 -33.30461 138.91259 35179 ft 583 kts 103°
2026-04-17 07:27 -33.32085 139.00756 35167 ft 583 kts 103°
2026-04-17 07:27 -33.33702 139.10255 35193 ft 583 kts 103°
2026-04-17 07:28 -33.35315 139.19771 35168 ft 584 kts 103°
2026-04-17 07:28 -33.36920 139.29291 35164 ft 584 kts 103°
2026-04-17 07:29 -33.38518 139.38811 35166 ft 584 kts 103°
2026-04-17 07:29 -33.40076 139.48343 35163 ft 584 kts 102°
2026-04-17 07:30 -33.41560 139.57893 35170 ft 584 kts 102°
2026-04-17 07:30 -33.43034 139.67458 35174 ft 585 kts 102°
2026-04-17 07:31 -33.44516 139.77047 35191 ft 587 kts 102°
2026-04-17 07:31 -33.46002 139.86662 35174 ft 588 kts 102°
2026-04-17 07:32 -33.47482 139.96288 35166 ft 588 kts 102°
2026-04-17 07:32 -33.48953 140.05926 35168 ft 588 kts 102°
2026-04-17 07:33 -33.50415 140.15556 35171 ft 587 kts 102°
2026-04-17 07:33 -33.51857 140.25105 35185 ft 586 kts 102°
2026-04-17 07:34 -33.53301 140.34716 35172 ft 586 kts 102°
2026-04-17 07:34 -33.54738 140.44334 35191 ft 586 kts 102°
2026-04-17 07:35 -33.56166 140.53942 35178 ft 586 kts 102°
2026-04-17 07:35 -33.57586 140.63556 35172 ft 585 kts 102°
2026-04-17 07:36 -33.58999 140.73170 35178 ft 585 kts 102°
2026-04-17 07:36 -33.60403 140.82780 35177 ft 585 kts 102°
2026-04-17 07:37 -33.61801 140.92405 35193 ft 586 kts 102°
2026-04-17 07:37 -33.63193 141.02036 35178 ft 586 kts 102°
2026-04-17 07:38 -33.64579 141.11686 35202 ft 587 kts 102°
2026-04-17 07:38 -33.65956 141.21342 35180 ft 587 kts 102°
2026-04-17 07:39 -33.67329 141.31016 35171 ft 588 kts 102°
2026-04-17 07:39 -33.68693 141.40690 35169 ft 588 kts 102°
2026-04-17 07:40 -33.70053 141.50389 35177 ft 589 kts 101°
2026-04-17 07:40 -33.71407 141.60099 35171 ft 590 kts 101°
2026-04-17 07:41 -33.72755 141.69830 35176 ft 591 kts 101°
2026-04-17 07:41 -33.74096 141.79562 35174 ft 591 kts 101°
2026-04-17 07:42 -33.75430 141.89311 35183 ft 591 kts 101°
2026-04-17 07:42 -33.76748 141.98993 35173 ft 591 kts 101°
2026-04-17 07:43 -33.78067 142.08747 35186 ft 591 kts 102°
2026-04-17 07:43 -33.79377 142.18492 35176 ft 591 kts 101°
2026-04-17 07:44 -33.80681 142.28245 35151 ft 591 kts 101°
2026-04-17 07:44 -33.81975 142.37995 35175 ft 591 kts 101°
2026-04-17 07:45 -33.83264 142.47766 35174 ft 592 kts 101°
2026-04-17 07:45 -33.84546 142.57539 35185 ft 592 kts 101°
2026-04-17 07:46 -33.85820 142.67332 35171 ft 592 kts 101°
2026-04-17 07:46 -33.87082 142.77121 35189 ft 592 kts 101°
2026-04-17 07:47 -33.88338 142.86919 35176 ft 592 kts 101°
2026-04-17 07:47 -33.89586 142.96706 35171 ft 592 kts 101°
2026-04-17 07:48 -33.90826 143.06497 35183 ft 591 kts 101°
2026-04-17 07:48 -33.92057 143.16282 35161 ft 591 kts 101°
2026-04-17 07:49 -33.93075 143.24423 35145 ft 591 kts 101°
2026-04-17 07:49 -33.94294 143.34227 35166 ft 593 kts 101°
2026-04-17 07:50 -33.95507 143.44055 35171 ft 593 kts 101°
2026-04-17 07:50 -33.96714 143.53893 35183 ft 595 kts 101°
2026-04-17 07:51 -33.97915 143.63757 35167 ft 595 kts 101°
2026-04-17 07:51 -33.99109 143.73632 35159 ft 596 kts 101°
2026-04-17 07:52 -34.00295 143.83507 35162 ft 596 kts 101°
2026-04-17 07:52 -34.01473 143.93384 35158 ft 595 kts 101°
2026-04-17 07:53 -34.02642 144.03251 35156 ft 594 kts 101°
2026-04-17 07:53 -34.03801 144.13105 35157 ft 594 kts 101°
2026-04-17 07:54 -34.04953 144.22962 35148 ft 593 kts 101°
2026-04-17 07:54 -34.06098 144.32833 35166 ft 595 kts 101°
2026-04-17 07:55 -34.07239 144.42738 35158 ft 597 kts 101°
2026-04-17 07:55 -34.08366 144.52600 35169 ft 598 kts 101°
2026-04-17 07:56 -34.09495 144.62551 35157 ft 599 kts 101°
2026-04-17 07:56 -34.10617 144.72512 35149 ft 599 kts 101°
2026-04-17 07:57 -34.11732 144.82482 35150 ft 600 kts 101°
2026-04-17 07:57 -34.12838 144.92450 35146 ft 599 kts 101°
2026-04-17 07:58 -34.13935 145.02413 35163 ft 598 kts 101°
2026-04-17 07:58 -34.15024 145.12376 35148 ft 599 kts 100°
2026-04-17 07:59 -34.16105 145.22342 35137 ft 599 kts 100°
2026-04-17 07:59 -34.17180 145.32327 35151 ft 601 kts 100°
2026-04-17 08:00 -34.18248 145.42338 35146 ft 602 kts 100°
2026-04-17 08:00 -34.19304 145.52298 35142 ft 602 kts 100°
2026-04-17 08:01 -34.20360 145.62341 35149 ft 603 kts 100°
2026-04-17 08:01 -34.21408 145.72397 35138 ft 603 kts 100°
2026-04-17 08:02 -34.22447 145.82451 35147 ft 603 kts 100°
2026-04-17 08:02 -34.23478 145.92498 35128 ft 602 kts 100°
2026-04-17 08:03 -34.24500 146.02535 35129 ft 601 kts 100°
2026-04-17 08:03 -34.25768 146.12492 35130 ft 597 kts 105°
2026-04-17 08:04 -34.27382 146.22327 35095 ft 596 kts 105°
2026-04-17 08:04 -34.29023 146.32166 35154 ft 598 kts 105°
2026-04-17 08:05 -34.30623 146.42058 35129 ft 600 kts 105°
2026-04-17 08:05 -34.32193 146.51979 35126 ft 601 kts 105°
2026-04-17 08:06 -34.33753 146.61915 35125 ft 602 kts 105°
2026-04-17 08:06 -34.35310 146.71860 35121 ft 601 kts 105°
2026-04-17 08:07 -34.36860 146.81800 35121 ft 601 kts 104°
2026-04-17 08:07 -34.38403 146.91742 35126 ft 601 kts 104°
2026-04-17 08:08 -34.39937 147.01682 35117 ft 600 kts 104°
2026-04-17 08:08 -34.41460 147.11614 35136 ft 600 kts 104°
2026-04-17 08:09 -34.42954 147.21434 35102 ft 583 kts 104°
2026-04-17 08:09 -34.44409 147.31042 35104 ft 580 kts 104°
2026-04-17 08:10 -34.45866 147.40668 35134 ft 581 kts 104°
2026-04-17 08:10 -34.47315 147.50308 35110 ft 581 kts 104°
2026-04-17 08:11 -34.48753 147.59951 35093 ft 581 kts 104°
2026-04-17 08:11 -34.50180 147.69579 35085 ft 581 kts 104°
2026-04-17 08:12 -34.51602 147.79218 35102 ft 581 kts 104°
2026-04-17 08:12 -34.53019 147.88876 35095 ft 582 kts 104°
2026-04-17 08:13 -34.54420 147.98480 35094 ft 583 kts 104°
2026-04-17 08:14 -34.56519 148.12987 35081 ft 577 kts 104°
2026-04-17 08:14 -34.57201 148.17747 35013 ft 566 kts 104°
2026-04-17 08:14 -34.57866 148.22405 34941 ft 555 kts 104°
2026-04-17 08:14 -34.58519 148.26983 34797 ft 547 kts 104°
2026-04-17 08:15 -34.59165 148.31507 34546 ft 542 kts 104°
2026-04-17 08:15 -34.59806 148.36001 34182 ft 540 kts 104°
2026-04-17 08:15 -34.60446 148.40482 33786 ft 538 kts 104°
2026-04-17 08:15 -34.61079 148.44943 33412 ft 535 kts 104°
2026-04-17 08:16 -34.61706 148.49374 33114 ft 530 kts 104°
2026-04-17 08:16 -34.62324 148.53765 32820 ft 526 kts 103°
2026-04-17 08:16 -34.62936 148.58124 32502 ft 522 kts 103°
2026-04-17 08:16 -34.63543 148.62459 32174 ft 519 kts 103°
2026-04-17 08:17 -34.64145 148.66764 31834 ft 516 kts 103°
2026-04-17 08:17 -34.64742 148.71051 31502 ft 513 kts 103°
2026-04-17 08:17 -34.65334 148.75309 31185 ft 510 kts 103°
2026-04-17 08:17 -34.65921 148.79547 30889 ft 508 kts 103°
2026-04-17 08:18 -34.66505 148.83766 30562 ft 506 kts 103°
2026-04-17 08:18 -34.67084 148.87965 30262 ft 503 kts 103°
2026-04-17 08:18 -34.67659 148.92144 29926 ft 500 kts 103°
2026-04-17 08:18 -34.68228 148.96295 29586 ft 497 kts 103°
2026-04-17 08:19 -34.68785 149.00368 29238 ft 494 kts 103°
2026-04-17 08:19 -34.69346 149.04475 28914 ft 491 kts 102°
2026-04-17 08:19 -34.69903 149.08564 28553 ft 490 kts 102°
2026-04-17 08:19 -34.70456 149.12637 28185 ft 488 kts 102°
2026-04-17 08:20 -34.71005 149.16694 27850 ft 485 kts 102°
2026-04-17 08:20 -34.71550 149.20728 27498 ft 482 kts 102°
2026-04-17 08:20 -34.72089 149.24734 27210 ft 479 kts 102°
2026-04-17 08:20 -34.72625 149.28714 26916 ft 476 kts 102°
2026-04-17 08:21 -34.73154 149.32674 26601 ft 472 kts 101°
2026-04-17 08:21 -34.73354 149.36652 26199 ft 474 kts 86°
2026-04-17 08:21 -34.72869 149.40601 25848 ft 471 kts 73°
2026-04-17 08:21 -34.71831 149.44319 25536 ft 460 kts 59°
2026-04-17 08:22 -34.70366 149.47713 25181 ft 450 kts 56°
2026-04-17 08:22 -34.68863 149.51036 24801 ft 447 kts 55°
2026-04-17 08:22 -34.67371 149.54335 24444 ft 445 kts 56°
2026-04-17 08:22 -34.65894 149.57630 24065 ft 443 kts 56°
2026-04-17 08:23 -34.64438 149.60915 23689 ft 441 kts 56°
2026-04-17 08:23 -34.62995 149.64192 23238 ft 439 kts 56°
2026-04-17 08:23 -34.61564 149.67455 22780 ft 436 kts 57°
2026-04-17 08:23 -34.60148 149.70687 22430 ft 431 kts 57°
2026-04-17 08:24 -34.58748 149.73884 22065 ft 427 kts 57°
2026-04-17 08:24 -34.57357 149.77053 21703 ft 424 kts 57°
2026-04-17 08:24 -34.55976 149.80194 21326 ft 420 kts 57°
2026-04-17 08:24 -34.54605 149.83310 20956 ft 417 kts 57°
2026-04-17 08:25 -34.53245 149.86401 20579 ft 414 kts 57°
2026-04-17 08:25 -34.51895 149.89461 20246 ft 410 kts 56°
2026-04-17 08:25 -34.50556 149.92494 19887 ft 407 kts 56°
2026-04-17 08:25 -34.49225 149.95507 19512 ft 404 kts 56°
2026-04-17 08:26 -34.47901 149.98498 19150 ft 401 kts 56°
2026-04-17 08:26 -34.46588 150.01468 18791 ft 398 kts 56°
2026-04-17 08:26 -34.45284 150.04414 18425 ft 396 kts 56°
2026-04-17 08:26 -34.43989 150.07340 18038 ft 392 kts 57°
2026-04-17 08:27 -34.42713 150.10236 17595 ft 386 kts 57°
2026-04-17 08:27 -34.41459 150.13062 17334 ft 378 kts 57°
2026-04-17 08:27 -34.40214 150.15852 16952 ft 375 kts 57°
2026-04-17 08:27 -34.38982 150.18611 16610 ft 370 kts 56°
2026-04-17 08:28 -34.37766 150.21342 16289 ft 367 kts 56°
2026-04-17 08:28 -34.36561 150.24047 15938 ft 363 kts 57°
2026-04-17 08:28 -34.35370 150.26724 15606 ft 359 kts 57°
2026-04-17 08:28 -34.34205 150.29338 15250 ft 356 kts 57°
2026-04-17 08:29 -34.33032 150.31963 14947 ft 354 kts 57°
2026-04-17 08:29 -34.31857 150.34585 14643 ft 356 kts 57°
2026-04-17 08:29 -34.30670 150.37247 14354 ft 364 kts 58°
2026-04-17 08:29 -34.29460 150.39961 13980 ft 368 kts 58°
2026-04-17 08:30 -34.28242 150.42679 13616 ft 366 kts 58°
2026-04-17 08:30 -34.27040 150.45365 13254 ft 361 kts 58°
2026-04-17 08:30 -34.25858 150.48016 12937 ft 355 kts 58°
2026-04-17 08:30 -34.24689 150.50625 12594 ft 350 kts 58°
2026-04-17 08:31 -34.23536 150.53188 12270 ft 345 kts 58°
2026-04-17 08:31 -34.22402 150.55720 11955 ft 340 kts 58°
2026-04-17 08:31 -34.21284 150.58214 11638 ft 335 kts 59°
2026-04-17 08:31 -34.20182 150.60669 11333 ft 330 kts 59°
2026-04-17 08:32 -34.19095 150.63089 11010 ft 325 kts 59°
2026-04-17 08:32 -34.18020 150.65479 10729 ft 324 kts 59°
2026-04-17 08:32 -34.16943 150.67875 10429 ft 327 kts 59°
2026-04-17 08:32 -34.15854 150.70290 10308 ft 326 kts 59°
2026-04-17 08:33 -34.14777 150.72681 10162 ft 321 kts 59°
2026-04-17 08:33 -34.13731 150.75006 10013 ft 311 kts 59°
2026-04-17 08:33 -34.12707 150.77282 9725 ft 307 kts 59°
2026-04-17 08:33 -34.11694 150.79527 9423 ft 302 kts 59°
2026-04-17 08:34 -34.10698 150.81733 9132 ft 297 kts 59°
2026-04-17 08:34 -34.09720 150.83901 8869 ft 292 kts 59°
2026-04-17 08:34 -34.08743 150.86067 8673 ft 296 kts 59°
2026-04-17 08:34 -34.07753 150.88267 8446 ft 300 kts 59°
2026-04-17 08:35 -34.06754 150.90486 8223 ft 301 kts 59°
2026-04-17 08:35 -34.05755 150.92706 7993 ft 301 kts 59°
2026-04-17 08:35 -34.04770 150.94891 7715 ft 300 kts 60°
2026-04-17 08:35 -34.03771 150.97101 7489 ft 299 kts 59°
2026-04-17 08:36 -34.02779 150.99300 7269 ft 298 kts 60°
2026-04-17 08:36 -34.01768 151.01461 7016 ft 291 kts 53°
2026-04-17 08:36 -34.00330 151.03093 6790 ft 281 kts 24°
2026-04-17 08:36 -33.98516 151.03747 6617 ft 268 kts 359°
2026-04-17 08:37 -33.96664 151.03810 6499 ft 266 kts 354°
2026-04-17 08:37 -33.94809 151.03740 6429 ft 266 kts 350°
2026-04-17 08:37 -33.92961 151.03520 6416 ft 268 kts 348°
2026-04-17 08:37 -33.91109 151.03262 6415 ft 268 kts 348°
2026-04-17 08:38 -33.89887 151.03090 6398 ft 266 kts 348°
2026-04-17 08:38 -33.88090 151.02792 6281 ft 255 kts 344°
2026-04-17 08:38 -33.86388 151.02402 6153 ft 244 kts 343°
2026-04-17 08:38 -33.84738 151.02005 6021 ft 241 kts 343°
2026-04-17 08:39 -33.83088 151.01596 5868 ft 243 kts 343°
2026-04-17 08:39 -33.81428 151.01179 5733 ft 245 kts 343°
2026-04-17 08:39 -33.79755 151.00756 5583 ft 246 kts 342°
2026-04-17 08:39 -33.78074 151.00330 5446 ft 247 kts 343°
2026-04-17 08:40 -33.76391 150.99902 5277 ft 247 kts 342°
2026-04-17 08:40 -33.74722 150.99481 5128 ft 242 kts 343°
2026-04-17 08:40 -33.73105 150.99080 4944 ft 232 kts 342°
2026-04-17 08:40 -33.71534 150.98980 4802 ft 232 kts 10°
2026-04-17 08:41 -33.70199 151.00039 4583 ft 234 kts 54°
2026-04-17 08:41 -33.69717 151.01811 4399 ft 219 kts 92°
2026-04-17 08:41 -33.69837 151.03629 4242 ft 220 kts 103°
2026-04-17 08:41 -33.70256 151.05366 4024 ft 212 kts 126°
2026-04-17 08:42 -33.71107 151.06746 3836 ft 203 kts 135°
2026-04-17 08:42 -33.71952 151.08082 3723 ft 198 kts 134°
2026-04-17 08:42 -33.72757 151.09376 3632 ft 187 kts 133°
2026-04-17 08:42 -33.73516 151.10602 3454 ft 181 kts 133°
2026-04-17 08:43 -33.74266 151.11785 3254 ft 173 kts 139°
2026-04-17 08:43 -33.75236 151.12461 3112 ft 156 kts 172°
2026-04-17 08:43 -33.76293 151.12770 3056 ft 157 kts 171°
2026-04-17 08:43 -33.77358 151.13089 3045 ft 158 kts 171°
2026-04-17 08:44 -33.78431 151.13384 2934 ft 158 kts 172°
2026-04-17 08:44 -33.79471 151.13662 2738 ft 144 kts 171°
2026-04-17 08:44 -33.80392 151.13901 2560 ft 127 kts 170°
2026-04-17 08:44 -33.81209 151.14114 2396 ft 119 kts 171°
2026-04-17 08:45 -33.82063 151.14335 2239 ft 128 kts 171°
2026-04-17 08:45 -33.82929 151.14559 2058 ft 126 kts 169°
2026-04-17 08:45 -33.83749 151.14774 1901 ft 120 kts 169°
2026-04-17 08:45 -33.84573 151.14987 1738 ft 121 kts 168°
2026-04-17 08:46 -33.85397 151.15199 1572 ft 120 kts 169°
2026-04-17 08:46 -33.86220 151.15371 1416 ft 122 kts 168°
2026-04-17 08:46 -33.87070 151.15626 1258 ft 126 kts 168°
2026-04-17 08:46 -33.87930 151.15858 1069 ft 128 kts 169°
2026-04-17 08:47 -33.88803 151.16087 910 ft 127 kts 171°
2026-04-17 08:47 -33.89668 151.16307 744 ft 130 kts 168°
2026-04-17 08:47 -33.90531 151.16534 563 ft 124 kts 169°
2026-04-17 08:47 -33.91390 151.16762 380 ft 129 kts 167°
2026-04-17 08:48 -33.92223 151.16967 228 ft 121 kts 168°
2026-04-17 08:48 -33.93033 151.17187 149 ft 123 kts 169°
2026-04-17 08:48 -33.93858 151.17361 254 ft 126 kts 170°
2026-04-17 08:48 -33.94696 151.17607 387 ft 126 kts 167°
2026-04-17 08:49 -33.95657 151.17895 641 ft 153 kts 169°
2026-04-17 08:49 -33.96674 151.18195 1665 ft 150 kts 168°
2026-04-17 08:49 -33.97744 151.18497 2514 ft 169 kts 172°
2026-04-17 08:49 -33.99037 151.18590 2944 ft 204 kts 182°
2026-04-17 08:50 -34.00513 151.18395 3674 ft 216 kts 192°
2026-04-17 08:50 -34.02002 151.18148 4611 ft 221 kts 192°
2026-04-17 08:50 -34.03539 151.17949 5393 ft 226 kts 192°
2026-04-17 08:50 -34.05092 151.17679 5919 ft 224 kts 205°
2026-04-17 08:51 -34.06361 151.16682 5995 ft 216 kts 236°
2026-04-17 08:51 -34.06910 151.15060 6024 ft 211 kts 266°
2026-04-17 08:51 -34.06688 151.13315 6039 ft 213 kts 283°
2026-04-17 08:51 -34.06227 151.11600 6037 ft 215 kts 286°
2026-04-17 08:52 -34.05619 151.09942 6024 ft 217 kts 292°
2026-04-17 08:52 -34.04917 151.08331 6029 ft 217 kts 293°
2026-04-17 08:52 -34.04202 151.06723 6031 ft 218 kts 294°
2026-04-17 08:52 -34.03491 151.05106 6020 ft 219 kts 294°
2026-04-17 08:53 -34.02778 151.03482 6001 ft 219 kts 294°
2026-04-17 08:53 -34.02058 151.01867 6025 ft 220 kts 298°
2026-04-17 08:53 -34.00922 151.00593 6046 ft 235 kts 329°
2026-04-17 08:53 -33.99309 151.00045 6048 ft 247 kts 345°
2026-04-17 08:54 -33.97593 150.99757 6039 ft 248 kts 347°
2026-04-17 08:54 -33.95891 150.99517 6015 ft 245 kts 347°
2026-04-17 08:54 -33.94191 150.99283 5904 ft 246 kts 348°
2026-04-17 08:54 -33.92498 150.99051 5811 ft 244 kts 348°
2026-04-17 08:55 -33.90806 150.98819 5657 ft 245 kts 347°
2026-04-17 08:55 -33.89117 150.98588 5513 ft 244 kts 348°
2026-04-17 08:55 -33.87429 150.98358 5356 ft 244 kts 347°
2026-04-17 08:55 -33.85741 150.98130 5215 ft 244 kts 348°
2026-04-17 08:56 -33.84079 150.97902 5041 ft 243 kts 348°
2026-04-17 08:56 -33.82397 150.97668 4904 ft 244 kts 348°
2026-04-17 08:56 -33.80714 150.97427 4754 ft 244 kts 348°
2026-04-17 08:56 -33.79028 150.97178 4594 ft 244 kts 348°
2026-04-17 08:57 -33.77343 150.96927 4445 ft 244 kts 347°
2026-04-17 08:57 -33.75661 150.96675 4298 ft 244 kts 347°
2026-04-17 08:57 -33.73974 150.96424 4163 ft 244 kts 348°
2026-04-17 08:57 -33.72292 150.96170 4058 ft 243 kts 347°
2026-04-17 08:58 -33.70616 150.95920 3957 ft 242 kts 347°
2026-04-17 08:58 -33.68949 150.95966 3804 ft 244 kts 17°
2026-04-17 08:58 -33.67640 150.97136 3670 ft 231 kts 60°
2026-04-17 08:58 -33.67296 150.98870 3602 ft 206 kts 101°
2026-04-17 08:59 -33.67579 151.00566 3624 ft 209 kts 109°
2026-04-17 08:59 -33.68052 151.02189 3514 ft 200 kts 128°
2026-04-17 08:59 -33.68844 151.03488 3391 ft 187 kts 135°
2026-04-17 08:59 -33.69635 151.04675 3261 ft 177 kts 137°
2026-04-17 09:00 -33.70379 151.05804 3186 ft 170 kts 137°
2026-04-17 09:00 -33.71114 151.06923 3122 ft 171 kts 136°